Wetterdaten: Freitag, 22.09.2023
Datum Zeit Temp. Aussen Temp. o. S. Temp +5cm Feuchte Auss Luftdruck Regen Sonnenschein Regendauer Solar Windben Empfang
22.09.2023 00:00 14,4 C 13,9 C 10,6 C 97 % 999,0 hPa 0,0 l/m 0 min 0 min 0 W/m 6,4 km/h (2 Bft) 93,48 %
22.09.2023 00:02 14,3 C 13,9 C 10,6 C 97 % 998,9 hPa 0,0 l/m 0 min 0 min 0 W/m 6,4 km/h (2 Bft) 93,02 %
22.09.2023 00:04 14,3 C 13,9 C 10,6 C 97 % 998,9 hPa 0,0 l/m 0 min 0 min 0 W/m 3,2 km/h (1 Bft) 93,48 %
22.09.2023 00:10 14,3 C 13,9 C 10,6 C 97 % 999,0 hPa 0,0 l/m 0 min 0 min 0 W/m 6,4 km/h (2 Bft) 93,62 %
22.09.2023 00:12 14,3 C 13,9 C 10,6 C 97 % 998,9 hPa 0,0 l/m 0 min 0 min 0 W/m 3,2 km/h (1 Bft) 91,49 %
22.09.2023 00:16 14,3 C 13,9 C 10,6 C 97 % 999,0 hPa 0,0 l/m 0 min 0 min 0 W/m 6,4 km/h (2 Bft) 92,47 %
22.09.2023 00:18 14,3 C 13,9 C 10,6 C 97 % 998,9 hPa 0,0 l/m 0 min 0 min 0 W/m 3,2 km/h (1 Bft) 93,62 %
22.09.2023 00:20 14,3 C 13,9 C 10,6 C 97 % 999,0 hPa 0,0 l/m 0 min 0 min 0 W/m 3,2 km/h (1 Bft) 93,62 %
22.09.2023 00:22 14,3 C 13,9 C 10,6 C 97 % 998,9 hPa 0,0 l/m 0 min 0 min 0 W/m 3,2 km/h (1 Bft) 93,62 %
22.09.2023 00:24 14,3 C 13,9 C 10,0 C 97 % 998,9 hPa 0,0 l/m 0 min 0 min 0 W/m 6,4 km/h (2 Bft) 95,74 %
22.09.2023 00:26 14,3 C 13,9 C 10,0 C 97 % 998,9 hPa 0,0 l/m 0 min 0 min 0 W/m 3,2 km/h (1 Bft) 95,74 %
22.09.2023 00:28 14,3 C 13,9 C 10,6 C 97 % 998,9 hPa 0,0 l/m 0 min 0 min 0 W/m 3,2 km/h (1 Bft) 95,74 %
22.09.2023 00:30 14,3 C 13,9 C 10,6 C 97 % 999,0 hPa 0,0 l/m 0 min 0 min 0 W/m 3,2 km/h (1 Bft) 97,83 %
22.09.2023 00:32 14,3 C 13,9 C 10,6 C 97 % 998,9 hPa 0,0 l/m 0 min 0 min 0 W/m 16,1 km/h (3 Bft) 93,62 %
22.09.2023 00:34 14,3 C 13,9 C 10,6 C 97 % 999,0 hPa 0,0 l/m 0 min 0 min 0 W/m 3,2 km/h (1 Bft) 96,00 %
22.09.2023 00:36 14,3 C 13,9 C 10,6 C 97 % 999,0 hPa 0,0 l/m 0 min 0 min 0 W/m 9,7 km/h (2 Bft) 97,87 %
22.09.2023 00:38 14,3 C 13,9 C 10,6 C 97 % 999,0 hPa 0,0 l/m 0 min 0 min 0 W/m 3,2 km/h (1 Bft) 97,87 %
22.09.2023 00:40 14,3 C 13,9 C 10,6 C 97 % 999,0 hPa 0,0 l/m 0 min 0 min 0 W/m 3,2 km/h (1 Bft) 100,00 %
22.09.2023 00:42 14,3 C 13,9 C 10,0 C 97 % 999,0 hPa 0,0 l/m 0 min 0 min 0 W/m 3,2 km/h (1 Bft) 97,87 %
22.09.2023 00:44 14,3 C 13,3 C 10,0 C 97 % 999,1 hPa 0,0 l/m 0 min 0 min 0 W/m 6,4 km/h (2 Bft) 95,65 %
22.09.2023 00:46 14,3 C 13,9 C 10,6 C 97 % 999,1 hPa 0,0 l/m 0 min 0 min 0 W/m 6,4 km/h (2 Bft) 95,74 %
22.09.2023 00:48 14,3 C 13,9 C 10,6 C 97 % 999,1 hPa 0,0 l/m 0 min 0 min 0 W/m 3,2 km/h (1 Bft) 100,00 %
22.09.2023 00:50 14,3 C 13,9 C 10,6 C 97 % 999,1 hPa 0,0 l/m 0 min 0 min 0 W/m 6,4 km/h (2 Bft) 95,74 %
22.09.2023 00:52 14,3 C 13,9 C 10,6 C 97 % 999,1 hPa 0,0 l/m 0 min 0 min 0 W/m 12,9 km/h (3 Bft) 97,87 %
22.09.2023 00:54 14,3 C 13,9 C 10,6 C 97 % 999,1 hPa 0,0 l/m 0 min 0 min 0 W/m 6,4 km/h (2 Bft) 97,87 %
22.09.2023 00:56 14,3 C 13,9 C 10,6 C 97 % 999,1 hPa 0,0 l/m 0 min 0 min 0 W/m 6,4 km/h (2 Bft) 97,22 %
22.09.2023 00:58 14,3 C 13,9 C 10,6 C 97 % 999,1 hPa 0,0 l/m 0 min 0 min 0 W/m 6,4 km/h (2 Bft) 92,00 %
22.09.2023 01:00 14,3 C 13,9 C 10,6 C 97 % 999,1 hPa 0,0 l/m 0 min 0 min 0 W/m 16,1 km/h (3 Bft) 95,65 %
22.09.2023 01:02 14,4 C 13,9 C 10,6 C 97 % 999,2 hPa 0,0 l/m 0 min 0 min 0 W/m 16,1 km/h (3 Bft) 97,87 %
22.09.2023 01:04 14,4 C 13,9 C 10,6 C 97 % 999,1 hPa 0,0 l/m 0 min 0 min 0 W/m 12,9 km/h (3 Bft) 100,00 %
22.09.2023 01:08 14,4 C 13,9 C 10,6 C 97 % 999,0 hPa 0,0 l/m 0 min 0 min 0 W/m 22,5 km/h (4 Bft) 98,99 %
22.09.2023 01:10 14,4 C 13,9 C 10,6 C 97 % 999,0 hPa 0,0 l/m 0 min 0 min 0 W/m 22,5 km/h (4 Bft) 100,00 %
22.09.2023 01:16 14,4 C 13,9 C 10,6 C 97 % 999,2 hPa 0,0 l/m 0 min 0 min 0 W/m 19,3 km/h (3 Bft) 98,78 %
22.09.2023 01:17 14,4 C 13,9 C 10,6 C 97 % 999,1 hPa 0,0 l/m 0 min 0 min 0 W/m 19,3 km/h (3 Bft) 95,83 %
22.09.2023 01:22 14,4 C 13,9 C 10,6 C 97 % 999,1 hPa 0,0 l/m 0 min 0 min 0 W/m 16,1 km/h (3 Bft) 100,00 %
22.09.2023 01:24 14,4 C 13,9 C 10,6 C 97 % 999,1 hPa 0,0 l/m 0 min 0 min 0 W/m 9,7 km/h (2 Bft) 100,00 %
22.09.2023 01:26 14,5 C 13,9 C 10,6 C 97 % 999,2 hPa 0,0 l/m 0 min 0 min 0 W/m 19,3 km/h (3 Bft) 95,74 %
22.09.2023 01:28 14,5 C 13,9 C 10,6 C 97 % 999,1 hPa 0,0 l/m 0 min 0 min 0 W/m 16,1 km/h (3 Bft) 97,87 %
22.09.2023 01:30 14,5 C 13,9 C 10,6 C 97 % 999,2 hPa 0,0 l/m 0 min 0 min 0 W/m 16,1 km/h (3 Bft) 100,00 %
22.09.2023 01:32 14,5 C 13,9 C 10,6 C 97 % 999,1 hPa 0,0 l/m 0 min 0 min 0 W/m 12,9 km/h (3 Bft) 97,87 %
22.09.2023 01:34 14,5 C 13,9 C 10,6 C 97 % 999,2 hPa 0,0 l/m 0 min 0 min 0 W/m 16,1 km/h (3 Bft) 100,00 %
22.09.2023 01:36 14,6 C 13,9 C 10,6 C 97 % 999,2 hPa 0,0 l/m 0 min 0 min 0 W/m 16,1 km/h (3 Bft) 97,87 %
22.09.2023 01:38 14,6 C 13,9 C 10,0 C 97 % 999,3 hPa 0,0 l/m 0 min 0 min 0 W/m 19,3 km/h (3 Bft) 97,87 %
22.09.2023 01:40 14,6 C 13,9 C 10,0 C 97 % 999,3 hPa 0,0 l/m 0 min 0 min 0 W/m 16,1 km/h (3 Bft) 97,83 %
22.09.2023 01:42 14,6 C 13,9 C 10,0 C 97 % 999,2 hPa 0,0 l/m 0 min 0 min 0 W/m 19,3 km/h (3 Bft) 97,87 %
22.09.2023 01:44 14,6 C 13,9 C 10,0 C 97 % 999,2 hPa 0,0 l/m 0 min 0 min 0 W/m 22,5 km/h (4 Bft) 97,87 %
22.09.2023 01:46 14,6 C 13,9 C 10,0 C 97 % 999,3 hPa 0,0 l/m 0 min 0 min 0 W/m 12,9 km/h (3 Bft) 97,87 %
22.09.2023 01:48 14,6 C 13,9 C 10,0 C 97 % 999,3 hPa 0,0 l/m 0 min 0 min 0 W/m 16,1 km/h (3 Bft) 97,87 %
22.09.2023 01:50 14,6 C 13,9 C 10,0 C 97 % 999,4 hPa 0,0 l/m 0 min 0 min 0 W/m 12,9 km/h (3 Bft) 97,87 %
22.09.2023 01:52 14,6 C 13,9 C 10,0 C 96 % 999,4 hPa 0,0 l/m 0 min 0 min 0 W/m 16,1 km/h (3 Bft) 97,87 %
22.09.2023 01:54 14,6 C 13,9 C 10,0 C 96 % 999,4 hPa 0,0 l/m 0 min 0 min 0 W/m 12,9 km/h (3 Bft) 97,87 %
22.09.2023 01:56 14,6 C 13,9 C 10,0 C 96 % 999,5 hPa 0,0 l/m 0 min 0 min 0 W/m 12,9 km/h (3 Bft) 96,15 %
22.09.2023 01:58 14,6 C 13,9 C 10,0 C 96 % 999,5 hPa 0,0 l/m 0 min 0 min 0 W/m 16,1 km/h (3 Bft) 100,00 %
22.09.2023 02:00 14,6 C 13,9 C 10,0 C 96 % 999,5 hPa 0,0 l/m 0 min 0 min 0 W/m 6,4 km/h (2 Bft) 95,83 %
22.09.2023 02:02 14,6 C 13,9 C 10,0 C 96 % 999,5 hPa 0,0 l/m 0 min 0 min 0 W/m 6,4 km/h (2 Bft) 97,87 %
22.09.2023 02:04 14,6 C 13,9 C 10,0 C 96 % 999,5 hPa 0,0 l/m 0 min 0 min 0 W/m 12,9 km/h (3 Bft) 97,56 %
22.09.2023 02:06 14,6 C 13,9 C 10,0 C 96 % 999,6 hPa 0,0 l/m 0 min 0 min 0 W/m 16,1 km/h (3 Bft) 96,61 %
22.09.2023 02:08 14,6 C 13,9 C 10,0 C 96 % 999,6 hPa 0,0 l/m 0 min 0 min 0 W/m 6,4 km/h (2 Bft) 100,00 %
22.09.2023 02:10 14,6 C 13,9 C 10,0 C 96 % 999,6 hPa 0,0 l/m 0 min 0 min 0 W/m 9,7 km/h (2 Bft) 100,00 %
22.09.2023 02:12 14,6 C 13,9 C 10,0 C 96 % 999,5 hPa 0,0 l/m 0 min 0 min 0 W/m 12,9 km/h (3 Bft) 100,00 %
22.09.2023 02:14 14,6 C 13,9 C 10,0 C 96 % 999,6 hPa 0,0 l/m 0 min 0 min 0 W/m 16,1 km/h (3 Bft) 97,87 %
22.09.2023 02:16 14,6 C 13,9 C 10,0 C 96 % 999,6 hPa 0,0 l/m 0 min 0 min 0 W/m 16,1 km/h (3 Bft) 100,00 %
22.09.2023 02:18 14,6 C 13,9 C 10,0 C 96 % 999,6 hPa 0,0 l/m 0 min 0 min 0 W/m 6,4 km/h (2 Bft) 100,00 %
22.09.2023 02:20 14,6 C 13,9 C 10,0 C 96 % 999,6 hPa 0,0 l/m 0 min 0 min 0 W/m 12,9 km/h (3 Bft) 97,87 %
22.09.2023 02:22 14,6 C 13,9 C 10,0 C 96 % 999,7 hPa 0,0 l/m 0 min 0 min 0 W/m 6,4 km/h (2 Bft) 97,87 %
22.09.2023 02:24 14,6 C 13,9 C 10,0 C 96 % 999,6 hPa 0,0 l/m 0 min 0 min 0 W/m 12,9 km/h (3 Bft) 95,74 %
22.09.2023 02:26 14,6 C 13,9 C 10,0 C 96 % 999,6 hPa 0,0 l/m 0 min 0 min 0 W/m 9,7 km/h (2 Bft) 95,74 %
22.09.2023 02:28 14,6 C 13,9 C 10,0 C 96 % 999,7 hPa 0,0 l/m 0 min 0 min 0 W/m 9,7 km/h (2 Bft) 97,83 %
22.09.2023 02:30 14,6 C 13,9 C 10,0 C 96 % 999,7 hPa 0,0 l/m 0 min 0 min 0 W/m 6,4 km/h (2 Bft) 95,74 %
22.09.2023 02:32 14,6 C 13,9 C 10,0 C 96 % 999,6 hPa 0,0 l/m 0 min 0 min 0 W/m 6,4 km/h (2 Bft) 97,87 %
22.09.2023 02:34 14,6 C 13,9 C 10,0 C 95 % 999,5 hPa 0,0 l/m 0 min 0 min 0 W/m 12,9 km/h (3 Bft) 97,87 %
22.09.2023 02:36 14,5 C 13,9 C 10,0 C 95 % 999,6 hPa 0,0 l/m 0 min 0 min 0 W/m 12,9 km/h (3 Bft) 97,87 %
22.09.2023 02:38 14,4 C 13,9 C 10,0 C 95 % 999,5 hPa 0,0 l/m 0 min 0 min 0 W/m 6,4 km/h (2 Bft) 97,87 %
22.09.2023 02:40 14,4 C 13,9 C 10,0 C 95 % 999,6 hPa 0,0 l/m 0 min 0 min 0 W/m 9,7 km/h (2 Bft) 97,87 %
22.09.2023 02:42 14,4 C 13,9 C 10,0 C 95 % 999,7 hPa 0,0 l/m 0 min 0 min 0 W/m 9,7 km/h (2 Bft) 97,83 %
22.09.2023 02:44 14,3 C 13,9 C 10,0 C 95 % 999,6 hPa 0,0 l/m 0 min 0 min 0 W/m 6,4 km/h (2 Bft) 97,87 %
22.09.2023 02:46 14,3 C 13,9 C 10,0 C 95 % 999,7 hPa 0,0 l/m 0 min 0 min 0 W/m 16,1 km/h (3 Bft) 97,87 %
22.09.2023 02:48 14,3 C 13,9 C 9,4 C 95 % 999,7 hPa 0,0 l/m 0 min 0 min 0 W/m 6,4 km/h (2 Bft) 97,87 %
22.09.2023 02:50 14,3 C 13,9 C 10,0 C 95 % 999,7 hPa 0,0 l/m 0 min 0 min 0 W/m 6,4 km/h (2 Bft) 97,87 %
22.09.2023 02:52 14,3 C 13,9 C 10,0 C 95 % 999,7 hPa 0,0 l/m 0 min 0 min 0 W/m 6,4 km/h (2 Bft) 97,83 %
22.09.2023 02:54 14,3 C 13,9 C 10,0 C 95 % 999,7 hPa 0,0 l/m 0 min 0 min 0 W/m 6,4 km/h (2 Bft) 95,74 %
22.09.2023 02:56 14,3 C 13,9 C 10,0 C 95 % 999,7 hPa 0,0 l/m 0 min 0 min 0 W/m 6,4 km/h (2 Bft) 95,74 %
22.09.2023 02:58 14,3 C 13,9 C 10,0 C 95 % 999,8 hPa 0,0 l/m 0 min 0 min 0 W/m 3,2 km/h (1 Bft) 93,62 %
22.09.2023 03:00 14,3 C 13,9 C 10,0 C 95 % 999,7 hPa 0,0 l/m 0 min 0 min 0 W/m 3,2 km/h (1 Bft) 97,87 %
22.09.2023 03:02 14,3 C 13,9 C 10,0 C 95 % 999,8 hPa 0,0 l/m 0 min 0 min 0 W/m 0,0 km/h (0 Bft) 95,74 %
22.09.2023 03:04 14,3 C 13,3 C 10,0 C 95 % 999,8 hPa 0,0 l/m 0 min 0 min 0 W/m 3,2 km/h (1 Bft) 97,67 %
22.09.2023 03:08 14,3 C 13,3 C 10,0 C 95 % 999,8 hPa 0,0 l/m 0 min 0 min 0 W/m 3,2 km/h (1 Bft) 97,03 %
22.09.2023 03:09 14,3 C 13,3 C 10,0 C 95 % 999,7 hPa 0,0 l/m 0 min 0 min 0 W/m 0,0 km/h (0 Bft) 95,83 %
22.09.2023 03:10 14,3 C 13,3 C 10,0 C 95 % 999,7 hPa 0,0 l/m 0 min 0 min 0 W/m 3,2 km/h (1 Bft) 100,00 %
22.09.2023 03:14 14,3 C 13,3 C 10,0 C 95 % 999,8 hPa 0,0 l/m 0 min 0 min 0 W/m 0,0 km/h (0 Bft) 95,74 %
22.09.2023 03:16 14,3 C 13,3 C 10,0 C 95 % 999,8 hPa 0,0 l/m 0 min 0 min 0 W/m 3,2 km/h (1 Bft) 97,87 %
22.09.2023 03:18 14,3 C 13,3 C 10,0 C 95 % 999,8 hPa 0,0 l/m 0 min 0 min 0 W/m 6,4 km/h (2 Bft) 97,87 %
22.09.2023 03:20 14,3 C 13,3 C 10,0 C 95 % 999,8 hPa 0,0 l/m 0 min 0 min 0 W/m 12,9 km/h (3 Bft) 95,74 %
22.09.2023 03:22 14,3 C 13,3 C 10,0 C 95 % 999,8 hPa 0,0 l/m 0 min 0 min 0 W/m 6,4 km/h (2 Bft) 97,87 %
22.09.2023 03:24 14,3 C 13,3 C 10,0 C 95 % 999,8 hPa 0,0 l/m 0 min 0 min 0 W/m 6,4 km/h (2 Bft) 97,87 %
22.09.2023 03:26 14,3 C 13,3 C 10,0 C 95 % 999,9 hPa 0,0 l/m 0 min 0 min 0 W/m 9,7 km/h (2 Bft) 95,65 %
22.09.2023 03:28 14,2 C 13,3 C 10,0 C 95 % 999,9 hPa 0,0 l/m 0 min 0 min 0 W/m 12,9 km/h (3 Bft) 95,74 %
22.09.2023 03:30 14,1 C 13,3 C 10,0 C 95 % 999,9 hPa 0,0 l/m 0 min 0 min 0 W/m 6,4 km/h (2 Bft) 93,62 %
22.09.2023 03:32 14,1 C 13,3 C 10,0 C 95 % 999,9 hPa 0,0 l/m 0 min 0 min 0 W/m 9,7 km/h (2 Bft) 95,74 %
22.09.2023 03:34 14,1 C 13,3 C 10,0 C 95 % 999,9 hPa 0,0 l/m 0 min 0 min 0 W/m 19,3 km/h (3 Bft) 93,62 %
22.09.2023 03:36 14,0 C 13,3 C 10,0 C 95 % 1000,0 hPa 0,0 l/m 0 min 0 min 0 W/m 19,3 km/h (3 Bft) 95,74 %
22.09.2023 03:38 13,9 C 13,3 C 10,0 C 95 % 1000,0 hPa 0,0 l/m 0 min 0 min 0 W/m 16,1 km/h (3 Bft) 95,74 %
22.09.2023 03:40 13,9 C 13,3 C 10,0 C 95 % 1000,0 hPa 0,0 l/m 0 min 0 min 0 W/m 6,4 km/h (2 Bft) 95,65 %
22.09.2023 03:42 13,8 C 13,3 C 10,0 C 94 % 1000,0 hPa 0,0 l/m 0 min 0 min 0 W/m 6,4 km/h (2 Bft) 95,74 %
22.09.2023 03:44 13,8 C 12,8 C 9,4 C 94 % 1000,0 hPa 0,0 l/m 0 min 0 min 0 W/m 9,7 km/h (2 Bft) 95,74 %
22.09.2023 03:46 13,8 C 12,8 C 9,4 C 94 % 1000,0 hPa 0,0 l/m 0 min 0 min 0 W/m 9,7 km/h (2 Bft) 95,74 %
22.09.2023 03:48 13,8 C 12,8 C 9,4 C 94 % 999,9 hPa 0,0 l/m 0 min 0 min 0 W/m 12,9 km/h (3 Bft) 95,74 %
22.09.2023 03:50 13,8 C 12,8 C 9,4 C 94 % 999,9 hPa 0,0 l/m 0 min 0 min 0 W/m 6,4 km/h (2 Bft) 97,87 %
22.09.2023 03:52 13,7 C 12,8 C 9,4 C 94 % 999,9 hPa 0,0 l/m 0 min 0 min 0 W/m 6,4 km/h (2 Bft) 95,74 %
22.09.2023 03:54 13,7 C 12,8 C 9,4 C 94 % 1000,0 hPa 0,0 l/m 0 min 0 min 0 W/m 6,4 km/h (2 Bft) 97,87 %
22.09.2023 03:56 13,7 C 12,8 C 9,4 C 94 % 1000,0 hPa 0,0 l/m 0 min 0 min 0 W/m 3,2 km/h (1 Bft) 98,00 %
22.09.2023 03:58 13,7 C 12,8 C 9,4 C 94 % 1000,0 hPa 0,0 l/m 0 min 0 min 0 W/m 3,2 km/h (1 Bft) 100,00 %
22.09.2023 04:00 13,7 C 12,8 C 9,4 C 94 % 999,9 hPa 0,0 l/m 0 min 0 min 0 W/m 6,4 km/h (2 Bft) 95,74 %
22.09.2023 04:02 13,6 C 12,8 C 9,4 C 94 % 1000,0 hPa 0,0 l/m 0 min 0 min 0 W/m 3,2 km/h (1 Bft) 97,87 %
22.09.2023 04:04 13,6 C 12,8 C 9,4 C 94 % 1000,0 hPa 0,0 l/m 0 min 0 min 0 W/m 3,2 km/h (1 Bft) 97,83 %
22.09.2023 04:08 13,6 C 12,2 C 9,4 C 94 % 1000,1 hPa 0,0 l/m 0 min 0 min 0 W/m 3,2 km/h (1 Bft) 100,00 %
22.09.2023 04:10 13,6 C 12,2 C 9,4 C 94 % 1000,0 hPa 0,0 l/m 0 min 0 min 0 W/m 3,2 km/h (1 Bft) 97,87 %
22.09.2023 04:12 13,5 C 12,2 C 9,4 C 94 % 1000,1 hPa 0,0 l/m 0 min 0 min 0 W/m 0,0 km/h (0 Bft) 97,83 %
22.09.2023 04:16 13,4 C 12,2 C 9,4 C 94 % 1000,1 hPa 0,0 l/m 0 min 0 min 0 W/m 3,2 km/h (1 Bft) 97,48 %
22.09.2023 04:18 13,4 C 12,2 C 9,4 C 94 % 1000,2 hPa 0,0 l/m 0 min 0 min 0 W/m 3,2 km/h (1 Bft) 96,83 %
22.09.2023 04:20 13,4 C 12,2 C 9,4 C 94 % 1000,2 hPa 0,0 l/m 0 min 0 min 0 W/m 0,0 km/h (0 Bft) 97,87 %
22.09.2023 04:22 13,4 C 12,2 C 9,4 C 94 % 1000,2 hPa 0,0 l/m 0 min 0 min 0 W/m 3,2 km/h (1 Bft) 97,87 %
22.09.2023 04:24 13,3 C 12,2 C 8,9 C 94 % 1000,2 hPa 0,0 l/m 0 min 0 min 0 W/m 3,2 km/h (1 Bft) 100,00 %
22.09.2023 04:26 13,3 C 12,2 C 8,9 C 94 % 1000,3 hPa 0,0 l/m 0 min 0 min 0 W/m 3,2 km/h (1 Bft) 96,30 %
22.09.2023 04:28 13,3 C 12,2 C 8,9 C 94 % 1000,3 hPa 0,0 l/m 0 min 0 min 0 W/m 6,4 km/h (2 Bft) 100,00 %
22.09.2023 04:30 13,3 C 12,2 C 8,9 C 94 % 1000,3 hPa 0,0 l/m 0 min 0 min 0 W/m 3,2 km/h (1 Bft) 100,00 %
22.09.2023 04:32 13,2 C 12,2 C 8,9 C 94 % 1000,3 hPa 0,0 l/m 0 min 0 min 0 W/m 3,2 km/h (1 Bft) 97,87 %
22.09.2023 04:34 13,2 C 12,2 C 8,9 C 94 % 1000,2 hPa 0,0 l/m 0 min 0 min 0 W/m 3,2 km/h (1 Bft) 97,87 %
22.09.2023 04:36 13,2 C 12,2 C 8,9 C 94 % 1000,1 hPa 0,0 l/m 0 min 0 min 0 W/m 3,2 km/h (1 Bft) 100,00 %
22.09.2023 04:38 13,2 C 12,2 C 8,9 C 94 % 1000,1 hPa 0,0 l/m 0 min 0 min 0 W/m 3,2 km/h (1 Bft) 100,00 %
22.09.2023 04:40 13,2 C 12,2 C 8,9 C 94 % 1000,2 hPa 0,0 l/m 0 min 0 min 0 W/m 0,0 km/h (0 Bft) 97,83 %
22.09.2023 04:42 13,2 C 12,2 C 8,9 C 94 % 1000,2 hPa 0,0 l/m 0 min 0 min 0 W/m 3,2 km/h (1 Bft) 97,87 %
22.09.2023 04:44 13,1 C 11,7 C 8,9 C 94 % 1000,1 hPa 0,0 l/m 0 min 0 min 0 W/m 3,2 km/h (1 Bft) 97,87 %
22.09.2023 04:46 13,1 C 11,7 C 8,9 C 94 % 1000,2 hPa 0,0 l/m 0 min 0 min 0 W/m 3,2 km/h (1 Bft) 97,87 %
22.09.2023 04:48 13,1 C 11,7 C 8,9 C 94 % 1000,2 hPa 0,0 l/m 0 min 0 min 0 W/m 0,0 km/h (0 Bft) 97,87 %
22.09.2023 04:50 13,1 C 11,7 C 8,9 C 94 % 1000,2 hPa 0,0 l/m 0 min 0 min 0 W/m 0,0 km/h (0 Bft) 95,74 %
22.09.2023 04:52 13,0 C 11,7 C 8,9 C 95 % 1000,2 hPa 0,0 l/m 0 min 0 min 0 W/m 0,0 km/h (0 Bft) 97,87 %
22.09.2023 04:54 13,0 C 11,7 C 8,9 C 95 % 1000,2 hPa 0,0 l/m 0 min 0 min 0 W/m 0,0 km/h (0 Bft) 97,87 %
22.09.2023 04:56 13,0 C 11,7 C 8,9 C 95 % 1000,1 hPa 0,0 l/m 0 min 0 min 0 W/m 3,2 km/h (1 Bft) 97,83 %
22.09.2023 04:58 12,9 C 11,7 C 8,9 C 94 % 1000,1 hPa 0,0 l/m 0 min 0 min 0 W/m 3,2 km/h (1 Bft) 97,22 %
22.09.2023 05:00 12,9 C 11,7 C 8,9 C 94 % 1000,2 hPa 0,0 l/m 0 min 0 min 0 W/m 3,2 km/h (1 Bft) 95,65 %
22.09.2023 05:02 12,9 C 11,7 C 8,9 C 94 % 1000,1 hPa 0,0 l/m 0 min 0 min 0 W/m 3,2 km/h (1 Bft) 93,62 %
22.09.2023 05:04 12,9 C 11,7 C 8,9 C 95 % 1000,1 hPa 0,0 l/m 0 min 0 min 0 W/m 3,2 km/h (1 Bft) 98,00 %
22.09.2023 05:08 12,8 C 11,7 C 8,9 C 95 % 1000,2 hPa 0,0 l/m 0 min 0 min 0 W/m 3,2 km/h (1 Bft) 95,92 %
22.09.2023 05:12 12,8 C 11,7 C 8,9 C 95 % 1000,2 hPa 0,0 l/m 0 min 0 min 0 W/m 0,0 km/h (0 Bft) 94,44 %
22.09.2023 05:14 12,8 C 11,7 C 8,9 C 95 % 1000,2 hPa 0,0 l/m 0 min 0 min 0 W/m 6,4 km/h (2 Bft) 95,92 %
22.09.2023 05:16 12,8 C 11,7 C 8,9 C 95 % 1000,2 hPa 0,0 l/m 0 min 0 min 0 W/m 6,4 km/h (2 Bft) 95,74 %
22.09.2023 05:18 12,7 C 12,2 C 8,9 C 95 % 1000,2 hPa 0,0 l/m 0 min 0 min 0 W/m 3,2 km/h (1 Bft) 95,74 %
22.09.2023 05:20 12,7 C 12,2 C 8,9 C 95 % 1000,2 hPa 0,0 l/m 0 min 0 min 0 W/m 6,4 km/h (2 Bft) 95,74 %
22.09.2023 05:22 12,7 C 12,2 C 8,9 C 95 % 1000,2 hPa 0,0 l/m 0 min 0 min 0 W/m 3,2 km/h (1 Bft) 95,74 %
22.09.2023 05:24 12,7 C 12,2 C 8,9 C 95 % 1000,1 hPa 0,0 l/m 0 min 0 min 0 W/m 6,4 km/h (2 Bft) 95,74 %
22.09.2023 05:26 12,7 C 12,2 C 8,9 C 95 % 1000,1 hPa 0,0 l/m 0 min 0 min 0 W/m 6,4 km/h (2 Bft) 97,83 %
22.09.2023 05:28 12,7 C 12,2 C 9,4 C 95 % 1000,1 hPa 0,0 l/m 0 min 0 min 0 W/m 6,4 km/h (2 Bft) 97,87 %
22.09.2023 05:30 12,7 C 12,2 C 9,4 C 95 % 1000,1 hPa 0,0 l/m 0 min 0 min 0 W/m 6,4 km/h (2 Bft) 100,00 %
22.09.2023 05:32 12,8 C 12,2 C 9,4 C 95 % 1000,1 hPa 0,0 l/m 0 min 0 min 0 W/m 6,4 km/h (2 Bft) 97,41 %
22.09.2023 05:34 12,8 C 12,2 C 9,4 C 95 % 1000,1 hPa 0,0 l/m 0 min 0 min 0 W/m 3,2 km/h (1 Bft) 98,39 %
22.09.2023 05:36 12,8 C 12,2 C 9,4 C 95 % 1000,2 hPa 0,0 l/m 0 min 0 min 0 W/m 3,2 km/h (1 Bft) 93,75 %
22.09.2023 05:38 12,7 C 12,2 C 9,4 C 95 % 1000,1 hPa 0,0 l/m 0 min 0 min 0 W/m 6,4 km/h (2 Bft) 98,15 %
22.09.2023 05:40 12,8 C 12,2 C 9,4 C 96 % 1000,1 hPa 0,0 l/m 0 min 0 min 0 W/m 6,4 km/h (2 Bft) 100,00 %
22.09.2023 05:42 12,8 C 12,2 C 9,4 C 95 % 1000,0 hPa 0,0 l/m 0 min 0 min 0 W/m 6,4 km/h (2 Bft) 100,00 %
22.09.2023 05:44 12,8 C 12,2 C 9,4 C 95 % 1000,0 hPa 0,0 l/m 0 min 0 min 0 W/m 6,4 km/h (2 Bft) 100,00 %
22.09.2023 05:46 12,8 C 12,2 C 9,4 C 95 % 1000,0 hPa 0,0 l/m 0 min 0 min 0 W/m 12,9 km/h (3 Bft) 100,00 %
22.09.2023 05:48 12,8 C 12,2 C 9,4 C 95 % 1000,0 hPa 0,0 l/m 0 min 0 min 0 W/m 6,4 km/h (2 Bft) 100,00 %
22.09.2023 05:50 12,8 C 12,2 C 9,4 C 95 % 1000,0 hPa 0,0 l/m 0 min 0 min 0 W/m 6,4 km/h (2 Bft) 100,00 %
22.09.2023 05:52 12,8 C 12,2 C 9,4 C 95 % 1000,0 hPa 0,0 l/m 0 min 0 min 0 W/m 3,2 km/h (1 Bft) 100,00 %
22.09.2023 05:54 12,8 C 12,2 C 9,4 C 95 % 1000,1 hPa 0,0 l/m 0 min 0 min 0 W/m 0,0 km/h (0 Bft) 97,83 %
22.09.2023 05:56 12,8 C 12,2 C 9,4 C 95 % 1000,1 hPa 0,0 l/m 0 min 0 min 0 W/m 0,0 km/h (0 Bft) 100,00 %
22.09.2023 05:58 12,8 C 12,2 C 9,4 C 95 % 1000,1 hPa 0,0 l/m 0 min 0 min 0 W/m 3,2 km/h (1 Bft) 100,00 %
22.09.2023 06:00 12,8 C 12,2 C 9,4 C 96 % 1000,1 hPa 0,0 l/m 0 min 0 min 0 W/m 3,2 km/h (1 Bft) 97,87 %
22.09.2023 06:02 12,8 C 12,2 C 9,4 C 96 % 1000,2 hPa 0,0 l/m 0 min 0 min 0 W/m 3,2 km/h (1 Bft) 100,00 %
22.09.2023 06:06 12,8 C 12,2 C 9,4 C 96 % 1000,2 hPa 0,0 l/m 0 min 0 min 0 W/m 0,0 km/h (0 Bft) 100,00 %
22.09.2023 06:08 12,9 C 12,2 C 9,4 C 96 % 1000,2 hPa 0,0 l/m 0 min 0 min 0 W/m 3,2 km/h (1 Bft) 100,00 %
22.09.2023 06:10 12,9 C 12,2 C 9,4 C 96 % 1000,3 hPa 0,0 l/m 0 min 0 min 0 W/m 3,2 km/h (1 Bft) 97,87 %
22.09.2023 06:12 12,9 C 12,2 C 9,4 C 96 % 1000,2 hPa 0,0 l/m 0 min 0 min 0 W/m 3,2 km/h (1 Bft) 97,87 %
22.09.2023 06:16 12,9 C 12,2 C 9,4 C 96 % 1000,2 hPa 0,0 l/m 0 min 0 min 0 W/m 3,2 km/h (1 Bft) 97,87 %
22.09.2023 06:18 12,9 C 12,2 C 9,4 C 96 % 1000,2 hPa 0,0 l/m 0 min 0 min 0 W/m 3,2 km/h (1 Bft) 93,62 %
22.09.2023 06:20 12,9 C 12,2 C 9,4 C 96 % 1000,3 hPa 0,0 l/m 0 min 0 min 0 W/m 0,0 km/h (0 Bft) 95,65 %
22.09.2023 06:22 12,9 C 12,2 C 9,4 C 96 % 1000,3 hPa 0,0 l/m 0 min 0 min 0 W/m 6,4 km/h (2 Bft) 97,87 %
22.09.2023 06:24 12,8 C 12,2 C 9,4 C 96 % 1000,3 hPa 0,0 l/m 0 min 0 min 0 W/m 0,0 km/h (0 Bft) 97,87 %
22.09.2023 06:26 12,8 C 12,2 C 9,4 C 96 % 1000,3 hPa 0,0 l/m 0 min 0 min 0 W/m 3,2 km/h (1 Bft) 97,87 %
22.09.2023 06:28 12,8 C 12,2 C 9,4 C 96 % 1000,4 hPa 0,0 l/m 0 min 0 min 0 W/m 3,2 km/h (1 Bft) 95,74 %
22.09.2023 06:30 12,8 C 12,2 C 9,4 C 96 % 1000,4 hPa 0,0 l/m 0 min 0 min 0 W/m 3,2 km/h (1 Bft) 97,87 %
22.09.2023 06:32 12,8 C 12,2 C 9,4 C 96 % 1000,4 hPa 0,0 l/m 0 min 0 min 0 W/m 3,2 km/h (1 Bft) 97,87 %
22.09.2023 06:34 12,8 C 12,2 C 9,4 C 96 % 1000,4 hPa 0,0 l/m 0 min 0 min 0 W/m 3,2 km/h (1 Bft) 95,74 %
22.09.2023 06:36 12,8 C 12,2 C 9,4 C 96 % 1000,4 hPa 0,0 l/m 0 min 0 min 0 W/m 6,4 km/h (2 Bft) 95,74 %
22.09.2023 06:38 12,8 C 12,2 C 9,4 C 96 % 1000,5 hPa 0,0 l/m 0 min 0 min 0 W/m 3,2 km/h (1 Bft) 97,83 %
22.09.2023 06:40 12,8 C 12,2 C 9,4 C 96 % 1000,5 hPa 0,0 l/m 0 min 0 min 0 W/m 3,2 km/h (1 Bft) 97,87 %
22.09.2023 06:42 12,8 C 12,2 C 9,4 C 96 % 1000,5 hPa 0,0 l/m 0 min 0 min 0 W/m 3,2 km/h (1 Bft) 97,87 %
22.09.2023 06:44 12,8 C 12,2 C 9,4 C 96 % 1000,5 hPa 0,0 l/m 0 min 0 min 0 W/m 3,2 km/h (1 Bft) 97,14 %
22.09.2023 06:46 12,8 C 12,2 C 9,4 C 96 % 1000,5 hPa 0,0 l/m 0 min 0 min 0 W/m 3,2 km/h (1 Bft) 96,61 %
22.09.2023 06:48 12,8 C 12,2 C 9,4 C 96 % 1000,6 hPa 0,0 l/m 0 min 0 min 0 W/m 3,2 km/h (1 Bft) 97,14 %
22.09.2023 06:50 12,8 C 12,2 C 9,4 C 96 % 1000,6 hPa 0,0 l/m 0 min 0 min 0 W/m 6,4 km/h (2 Bft) 96,61 %
22.09.2023 06:52 12,8 C 12,2 C 9,4 C 96 % 1000,6 hPa 0,0 l/m 0 min 0 min 0 W/m 3,2 km/h (1 Bft) 94,29 %
22.09.2023 06:54 12,8 C 12,2 C 9,4 C 96 % 1000,7 hPa 0,0 l/m 0 min 0 min 0 W/m 3,2 km/h (1 Bft) 95,74 %
22.09.2023 06:56 12,8 C 12,2 C 9,4 C 96 % 1000,7 hPa 0,0 l/m 0 min 0 min 0 W/m 6,4 km/h (2 Bft) 95,74 %
22.09.2023 06:58 12,8 C 12,2 C 9,4 C 96 % 1000,7 hPa 0,0 l/m 0 min 0 min 0 W/m 3,2 km/h (1 Bft) 93,02 %
22.09.2023 07:00 12,8 C 12,2 C 9,4 C 96 % 1000,6 hPa 0,0 l/m 0 min 0 min 0 W/m 3,2 km/h (1 Bft) 93,62 %
22.09.2023 07:02 12,8 C 12,2 C 9,4 C 96 % 1000,6 hPa 0,0 l/m 0 min 0 min 0 W/m 0,0 km/h (0 Bft) 95,74 %
22.09.2023 07:04 12,8 C 12,2 C 9,4 C 96 % 1000,6 hPa 0,0 l/m 0 min 0 min 0 W/m 3,2 km/h (1 Bft) 96,08 %
22.09.2023 07:06 12,8 C 12,2 C 9,4 C 96 % 1000,6 hPa 0,0 l/m 0 min 0 min 0 W/m 3,2 km/h (1 Bft) 95,74 %
22.09.2023 07:08 12,8 C 12,2 C 9,4 C 96 % 1000,6 hPa 0,0 l/m 0 min 0 min 0 W/m 3,2 km/h (1 Bft) 95,74 %
22.09.2023 07:10 12,8 C 12,2 C 9,4 C 96 % 1000,6 hPa 0,0 l/m 0 min 0 min 0 W/m 3,2 km/h (1 Bft) 93,62 %
22.09.2023 07:12 12,8 C 12,2 C 9,4 C 96 % 1000,6 hPa 0,0 l/m 0 min 0 min 0 W/m 3,2 km/h (1 Bft) 95,74 %
22.09.2023 07:14 12,8 C 12,2 C 9,4 C 96 % 1000,7 hPa 0,0 l/m 0 min 0 min 0 W/m 3,2 km/h (1 Bft) 93,48 %
22.09.2023 07:16 12,8 C 12,2 C 9,4 C 96 % 1000,6 hPa 0,0 l/m 0 min 0 min 0 W/m 0,0 km/h (0 Bft) 95,74 %
22.09.2023 07:18 12,8 C 12,2 C 9,4 C 96 % 1000,6 hPa 0,0 l/m 0 min 0 min 0 W/m 3,2 km/h (1 Bft) 93,62 %
22.09.2023 07:20 12,8 C 12,2 C 9,4 C 96 % 1000,6 hPa 0,0 l/m 0 min 0 min 0 W/m 0,0 km/h (0 Bft) 95,74 %
22.09.2023 07:22 12,8 C 12,2 C 9,4 C 96 % 1000,7 hPa 0,0 l/m 0 min 0 min 0 W/m 3,2 km/h (1 Bft) 95,74 %
22.09.2023 07:24 12,8 C 12,2 C 9,4 C 95 % 1000,8 hPa 0,0 l/m 0 min 0 min 0 W/m 6,4 km/h (2 Bft) 95,74 %
22.09.2023 07:26 12,8 C 12,2 C 9,4 C 95 % 1000,8 hPa 0,0 l/m 0 min 0 min 0 W/m 6,4 km/h (2 Bft) 95,74 %
22.09.2023 07:28 12,7 C 12,2 C 9,4 C 95 % 1000,8 hPa 0,0 l/m 0 min 0 min 3 W/m 3,2 km/h (1 Bft) 97,87 %
22.09.2023 07:30 12,7 C 12,2 C 9,4 C 95 % 1000,8 hPa 0,0 l/m 0 min 0 min 5 W/m 3,2 km/h (1 Bft) 97,96 %
22.09.2023 07:32 12,7 C 12,2 C 9,4 C 95 % 1000,8 hPa 0,0 l/m 0 min 0 min 7 W/m 3,2 km/h (1 Bft) 97,87 %
22.09.2023 07:34 12,7 C 12,2 C 9,4 C 95 % 1000,8 hPa 0,0 l/m 0 min 0 min 7 W/m 3,2 km/h (1 Bft) 97,87 %
22.09.2023 07:36 12,7 C 12,2 C 9,4 C 95 % 1000,9 hPa 0,0 l/m 0 min 0 min 9 W/m 3,2 km/h (1 Bft) 97,83 %
22.09.2023 07:38 12,7 C 11,7 C 9,4 C 95 % 1000,9 hPa 0,0 l/m 0 min 0 min 10 W/m 3,2 km/h (1 Bft) 97,87 %
22.09.2023 07:40 12,7 C 11,7 C 9,4 C 95 % 1000,8 hPa 0,0 l/m 0 min 0 min 11 W/m 3,2 km/h (1 Bft) 97,87 %
22.09.2023 07:42 12,7 C 11,7 C 9,4 C 95 % 1000,8 hPa 0,0 l/m 0 min 0 min 11 W/m 3,2 km/h (1 Bft) 97,87 %
22.09.2023 07:44 12,7 C 11,7 C 9,4 C 95 % 1000,8 hPa 0,0 l/m 0 min 0 min 11 W/m 3,2 km/h (1 Bft) 100,00 %
22.09.2023 07:46 12,6 C 11,7 C 9,4 C 95 % 1000,8 hPa 0,0 l/m 0 min 0 min 11 W/m 3,2 km/h (1 Bft) 97,87 %
22.09.2023 07:48 12,6 C 11,7 C 8,9 C 95 % 1000,7 hPa 0,0 l/m 0 min 0 min 12 W/m 6,4 km/h (2 Bft) 97,87 %
22.09.2023 07:50 12,6 C 11,7 C 8,9 C 95 % 1000,8 hPa 0,0 l/m 0 min 0 min 12 W/m 12,9 km/h (3 Bft) 97,87 %
22.09.2023 07:52 12,6 C 11,7 C 8,9 C 96 % 1000,8 hPa 0,0 l/m 0 min 0 min 12 W/m 6,4 km/h (2 Bft) 100,00 %
22.09.2023 07:54 12,6 C 11,7 C 8,9 C 96 % 1000,8 hPa 0,0 l/m 0 min 0 min 12 W/m 6,4 km/h (2 Bft) 97,92 %
22.09.2023 07:56 12,6 C 11,7 C 8,9 C 96 % 1000,8 hPa 0,0 l/m 0 min 0 min 13 W/m 6,4 km/h (2 Bft) 100,00 %
22.09.2023 07:58 12,5 C 11,7 C 8,9 C 96 % 1000,9 hPa 0,0 l/m 0 min 0 min 14 W/m 3,2 km/h (1 Bft) 100,00 %
22.09.2023 08:00 12,5 C 11,7 C 8,9 C 96 % 1001,0 hPa 0,0 l/m 0 min 0 min 14 W/m 3,2 km/h (1 Bft) 100,00 %
22.09.2023 08:02 12,5 C 11,7 C 8,9 C 96 % 1001,0 hPa 0,0 l/m 0 min 0 min 15 W/m 3,2 km/h (1 Bft) 97,87 %
22.09.2023 08:04 12,5 C 11,7 C 8,9 C 96 % 1001,0 hPa 0,0 l/m 0 min 0 min 16 W/m 6,4 km/h (2 Bft) 100,00 %
22.09.2023 08:06 12,4 C 11,7 C 8,9 C 96 % 1001,0 hPa 0,0 l/m 0 min 0 min 17 W/m 3,2 km/h (1 Bft) 97,87 %
22.09.2023 08:08 12,4 C 11,7 C 8,9 C 96 % 1001,1 hPa 0,0 l/m 0 min 0 min 18 W/m 3,2 km/h (1 Bft) 100,00 %
22.09.2023 08:10 12,4 C 11,7 C 8,9 C 96 % 1001,1 hPa 0,0 l/m 0 min 0 min 19 W/m 6,4 km/h (2 Bft) 100,00 %
22.09.2023 08:12 12,4 C 11,7 C 8,9 C 96 % 1001,2 hPa 0,0 l/m 0 min 0 min 20 W/m 3,2 km/h (1 Bft) 100,00 %
22.09.2023 08:14 12,4 C 11,7 C 8,9 C 96 % 1001,2 hPa 0,0 l/m 0 min 0 min 26 W/m 3,2 km/h (1 Bft) 100,00 %
22.09.2023 08:16 12,4 C 11,7 C 8,9 C 96 % 1001,0 hPa 0,0 l/m 0 min 0 min 27 W/m 3,2 km/h (1 Bft) 100,00 %
22.09.2023 08:18 12,4 C 12,2 C 8,9 C 96 % 1001,0 hPa 0,0 l/m 0 min 0 min 26 W/m 3,2 km/h (1 Bft) 100,00 %
22.09.2023 08:20 12,4 C 12,2 C 9,4 C 96 % 1001,0 hPa 0,0 l/m 0 min 0 min 24 W/m 3,2 km/h (1 Bft) 100,00 %
22.09.2023 08:22 12,4 C 12,2 C 9,4 C 96 % 1000,9 hPa 0,0 l/m 0 min 0 min 21 W/m 3,2 km/h (1 Bft) 97,87 %
22.09.2023 08:24 12,4 C 12,2 C 9,4 C 96 % 1000,9 hPa 0,0 l/m 0 min 0 min 23 W/m 6,4 km/h (2 Bft) 100,00 %
22.09.2023 08:26 12,5 C 12,2 C 9,4 C 96 % 1000,9 hPa 0,0 l/m 0 min 0 min 22 W/m 6,4 km/h (2 Bft) 100,00 %
22.09.2023 08:28 12,5 C 12,2 C 9,4 C 96 % 1000,9 hPa 0,0 l/m 0 min 0 min 22 W/m 6,4 km/h (2 Bft) 100,00 %
22.09.2023 08:30 12,5 C 12,2 C 9,4 C 96 % 1000,9 hPa 0,0 l/m 0 min 0 min 21 W/m 6,4 km/h (2 Bft) 100,00 %
22.09.2023 08:32 12,5 C 12,2 C 9,4 C 96 % 1001,0 hPa 0,0 l/m 0 min 0 min 22 W/m 16,1 km/h (3 Bft) 100,00 %
22.09.2023 08:34 12,5 C 12,2 C 9,4 C 96 % 1001,0 hPa 0,0 l/m 0 min 0 min 23 W/m 3,2 km/h (1 Bft) 100,00 %
22.09.2023 08:36 12,6 C 12,2 C 9,4 C 96 % 1001,0 hPa 0,0 l/m 0 min 0 min 26 W/m 12,9 km/h (3 Bft) 97,87 %
22.09.2023 08:38 12,6 C 12,2 C 9,4 C 96 % 1001,0 hPa 0,0 l/m 0 min 0 min 28 W/m 16,1 km/h (3 Bft) 97,87 %
22.09.2023 08:40 12,6 C 12,2 C 9,4 C 96 % 1001,0 hPa 0,0 l/m 0 min 0 min 28 W/m 16,1 km/h (3 Bft) 100,00 %
22.09.2023 08:42 12,6 C 12,2 C 9,4 C 96 % 1001,0 hPa 0,0 l/m 0 min 0 min 30 W/m 16,1 km/h (3 Bft) 97,87 %
22.09.2023 08:44 12,6 C 12,8 C 9,4 C 96 % 1001,0 hPa 0,0 l/m 0 min 0 min 30 W/m 19,3 km/h (3 Bft) 97,87 %
22.09.2023 08:46 12,7 C 12,8 C 9,4 C 96 % 1001,0 hPa 0,0 l/m 0 min 0 min 32 W/m 16,1 km/h (3 Bft) 97,92 %
22.09.2023 08:48 12,7 C 12,8 C 9,4 C 96 % 1001,1 hPa 0,0 l/m 0 min 0 min 32 W/m 12,9 km/h (3 Bft) 95,65 %
22.09.2023 08:50 12,8 C 12,8 C 9,4 C 96 % 1001,1 hPa 0,0 l/m 0 min 0 min 33 W/m 9,7 km/h (2 Bft) 97,87 %
22.09.2023 08:52 12,8 C 12,8 C 10,0 C 96 % 1001,1 hPa 0,0 l/m 0 min 0 min 34 W/m 12,9 km/h (3 Bft) 97,87 %
22.09.2023 08:54 12,8 C 12,8 C 10,0 C 96 % 1001,2 hPa 0,0 l/m 0 min 0 min 35 W/m 16,1 km/h (3 Bft) 97,87 %
22.09.2023 08:56 12,9 C 12,8 C 10,0 C 96 % 1001,2 hPa 0,0 l/m 0 min 0 min 35 W/m 6,4 km/h (2 Bft) 97,87 %
22.09.2023 08:58 12,9 C 12,8 C 10,0 C 96 % 1001,2 hPa 0,0 l/m 0 min 0 min 37 W/m 16,1 km/h (3 Bft) 97,87 %
22.09.2023 09:00 13,0 C 12,8 C 10,0 C 95 % 1001,2 hPa 0,0 l/m 0 min 0 min 38 W/m 19,3 km/h (3 Bft) 97,87 %
22.09.2023 09:02 13,1 C 13,3 C 10,0 C 95 % 1001,1 hPa 0,0 l/m 0 min 0 min 37 W/m 16,1 km/h (3 Bft) 97,14 %
22.09.2023 09:04 13,1 C 13,3 C 10,0 C 95 % 1001,1 hPa 0,0 l/m 0 min 0 min 38 W/m 16,1 km/h (3 Bft) 98,15 %
22.09.2023 09:06 13,2 C 13,3 C 10,0 C 95 % 1001,1 hPa 0,0 l/m 0 min 0 min 39 W/m 16,1 km/h (3 Bft) 97,92 %
22.09.2023 09:08 13,2 C 13,3 C 10,0 C 95 % 1001,1 hPa 0,0 l/m 0 min 0 min 41 W/m 19,3 km/h (3 Bft) 97,87 %
22.09.2023 09:10 13,3 C 13,3 C 10,0 C 95 % 1001,2 hPa 0,0 l/m 0 min 0 min 42 W/m 19,3 km/h (3 Bft) 97,87 %
22.09.2023 09:12 13,3 C 13,3 C 10,0 C 94 % 1001,2 hPa 0,0 l/m 0 min 0 min 43 W/m 22,5 km/h (4 Bft) 95,74 %
22.09.2023 09:14 13,4 C 13,3 C 10,0 C 94 % 1001,2 hPa 0,0 l/m 0 min 0 min 48 W/m 19,3 km/h (3 Bft) 100,00 %
22.09.2023 09:16 13,4 C 13,3 C 10,6 C 94 % 1001,3 hPa 0,0 l/m 0 min 0 min 49 W/m 16,1 km/h (3 Bft) 97,87 %
22.09.2023 09:18 13,5 C 13,3 C 10,6 C 94 % 1001,2 hPa 0,0 l/m 0 min 0 min 50 W/m 25,7 km/h (4 Bft) 97,87 %
22.09.2023 09:20 13,6 C 13,9 C 10,6 C 93 % 1001,3 hPa 0,0 l/m 0 min 0 min 51 W/m 22,5 km/h (4 Bft) 97,87 %
22.09.2023 09:22 13,7 C 13,9 C 10,6 C 93 % 1001,2 hPa 0,0 l/m 0 min 0 min 51 W/m 12,9 km/h (3 Bft) 95,74 %
22.09.2023 09:24 13,8 C 13,9 C 10,6 C 92 % 1001,2 hPa 0,0 l/m 0 min 0 min 50 W/m 16,1 km/h (3 Bft) 97,87 %
22.09.2023 09:26 13,8 C 13,9 C 10,6 C 92 % 1001,3 hPa 0,0 l/m 0 min 0 min 50 W/m 19,3 km/h (3 Bft) 97,87 %
22.09.2023 09:28 13,9 C 13,9 C 10,6 C 92 % 1001,3 hPa 0,0 l/m 0 min 0 min 53 W/m 22,5 km/h (4 Bft) 97,83 %
22.09.2023 09:30 14,0 C 13,9 C 10,6 C 91 % 1001,3 hPa 0,0 l/m 0 min 0 min 55 W/m 22,5 km/h (4 Bft) 95,74 %
22.09.2023 09:32 14,1 C 13,9 C 10,6 C 91 % 1001,4 hPa 0,0 l/m 0 min 0 min 57 W/m 19,3 km/h (3 Bft) 95,74 %
22.09.2023 09:34 14,2 C 13,9 C 10,6 C 91 % 1001,4 hPa 0,0 l/m 0 min 0 min 60 W/m 12,9 km/h (3 Bft) 95,74 %
22.09.2023 09:36 14,2 C 13,9 C 10,6 C 90 % 1001,5 hPa 0,0 l/m 0 min 0 min 64 W/m 22,5 km/h (4 Bft) 95,74 %
22.09.2023 09:38 14,3 C 14,4 C 10,6 C 90 % 1001,6 hPa 0,0 l/m 0 min 0 min 66 W/m 22,5 km/h (4 Bft) 97,87 %
22.09.2023 09:40 14,3 C 14,4 C 10,6 C 90 % 1001,6 hPa 0,0 l/m 0 min 0 min 64 W/m 16,1 km/h (3 Bft) 95,74 %
22.09.2023 09:42 14,3 C 14,4 C 11,1 C 89 % 1001,7 hPa 0,0 l/m 0 min 0 min 62 W/m 22,5 km/h (4 Bft) 95,74 %
22.09.2023 09:44 14,4 C 14,4 C 11,1 C 89 % 1001,7 hPa 0,0 l/m 0 min 0 min 62 W/m 19,3 km/h (3 Bft) 95,74 %
22.09.2023 09:46 14,5 C 14,4 C 11,1 C 89 % 1001,8 hPa 0,0 l/m 0 min 0 min 65 W/m 19,3 km/h (3 Bft) 95,65 %
22.09.2023 09:48 14,6 C 14,4 C 11,1 C 89 % 1001,8 hPa 0,0 l/m 0 min 0 min 74 W/m 16,1 km/h (3 Bft) 93,62 %
22.09.2023 09:50 14,6 C 14,4 C 11,1 C 89 % 1001,8 hPa 0,0 l/m 0 min 0 min 81 W/m 25,7 km/h (4 Bft) 93,62 %
22.09.2023 09:52 14,7 C 15,0 C 11,1 C 88 % 1001,9 hPa 0,0 l/m 0 min 0 min 69 W/m 12,9 km/h (3 Bft) 93,62 %
22.09.2023 09:54 14,7 C 15,0 C 11,1 C 88 % 1001,9 hPa 0,0 l/m 0 min 0 min 78 W/m 16,1 km/h (3 Bft) 93,62 %
22.09.2023 09:56 14,8 C 15,0 C 11,1 C 88 % 1001,9 hPa 0,0 l/m 0 min 0 min 105 W/m 6,4 km/h (2 Bft) 93,62 %
22.09.2023 09:58 14,8 C 15,0 C 11,1 C 88 % 1001,9 hPa 0,0 l/m 0 min 0 min 95 W/m 16,1 km/h (3 Bft) 95,74 %
22.09.2023 10:00 14,9 C 15,6 C 11,1 C 88 % 1001,9 hPa 0,0 l/m 0 min 0 min 168 W/m 16,1 km/h (3 Bft) 94,29 %
22.09.2023 10:02 15,0 C 15,0 C 11,1 C 87 % 1002,1 hPa 0,0 l/m 2 min 0 min 196 W/m 22,5 km/h (4 Bft) 95,83 %
22.09.2023 10:04 15,1 C 15,0 C 11,1 C 86 % 1002,0 hPa 0,0 l/m 0 min 0 min 142 W/m 19,3 km/h (3 Bft) 95,45 %
22.09.2023 10:06 15,1 C 15,0 C 11,1 C 86 % 1001,9 hPa 0,0 l/m 0 min 0 min 111 W/m 22,5 km/h (4 Bft) 97,87 %
22.09.2023 10:08 15,2 C 15,0 C 11,1 C 85 % 1001,8 hPa 0,0 l/m 0 min 0 min 101 W/m 19,3 km/h (3 Bft) 95,74 %
22.09.2023 10:10 15,2 C 15,0 C 11,1 C 85 % 1001,9 hPa 0,0 l/m 0 min 0 min 67 W/m 25,7 km/h (4 Bft) 95,74 %
22.09.2023 10:12 15,3 C 15,6 C 11,1 C 85 % 1001,9 hPa 0,0 l/m 0 min 0 min 66 W/m 22,5 km/h (4 Bft) 97,87 %
22.09.2023 10:14 15,3 C 16,1 C 11,1 C 85 % 1001,9 hPa 0,0 l/m 0 min 0 min 80 W/m 19,3 km/h (3 Bft) 95,74 %
22.09.2023 10:16 15,4 C 15,6 C 11,7 C 85 % 1002,0 hPa 0,0 l/m 0 min 0 min 91 W/m 25,7 km/h (4 Bft) 97,87 %
22.09.2023 10:18 15,4 C 15,6 C 11,7 C 84 % 1002,0 hPa 0,0 l/m 0 min 0 min 182 W/m 29,0 km/h (5 Bft) 95,65 %
22.09.2023 10:20 15,4 C 15,6 C 11,7 C 84 % 1002,1 hPa 0,0 l/m 0 min 0 min 129 W/m 19,3 km/h (3 Bft) 97,87 %
22.09.2023 10:22 15,5 C 15,6 C 11,7 C 84 % 1002,2 hPa 0,0 l/m 0 min 0 min 190 W/m 19,3 km/h (3 Bft) 95,74 %
22.09.2023 10:24 15,6 C 15,6 C 11,7 C 84 % 1002,2 hPa 0,0 l/m 0 min 0 min 167 W/m 22,5 km/h (4 Bft) 97,87 %
22.09.2023 10:26 15,6 C 15,6 C 11,7 C 83 % 1002,2 hPa 0,0 l/m 0 min 0 min 105 W/m 22,5 km/h (4 Bft) 95,74 %
22.09.2023 10:28 15,7 C 15,6 C 11,7 C 83 % 1002,2 hPa 0,0 l/m 0 min 0 min 85 W/m 16,1 km/h (3 Bft) 97,87 %
22.09.2023 10:30 15,7 C 15,6 C 11,7 C 83 % 1002,2 hPa 0,0 l/m 0 min 0 min 82 W/m 19,3 km/h (3 Bft) 97,87 %
22.09.2023 10:32 15,7 C 15,6 C 11,7 C 82 % 1002,2 hPa 0,0 l/m 0 min 0 min 84 W/m 19,3 km/h (3 Bft) 97,87 %
22.09.2023 10:34 15,7 C 15,6 C 11,7 C 82 % 1002,1 hPa 0,0 l/m 0 min 0 min 154 W/m 22,5 km/h (4 Bft) 93,62 %
22.09.2023 10:36 15,8 C 15,6 C 11,7 C 82 % 1002,1 hPa 0,0 l/m 0 min 0 min 95 W/m 19,3 km/h (3 Bft) 97,83 %
22.09.2023 10:38 15,8 C 15,6 C 11,7 C 82 % 1002,2 hPa 0,0 l/m 0 min 0 min 119 W/m 16,1 km/h (3 Bft) 97,87 %
22.09.2023 10:40 15,8 C 16,1 C 11,7 C 81 % 1002,2 hPa 0,0 l/m 0 min 0 min 163 W/m 12,9 km/h (3 Bft) 97,87 %
22.09.2023 10:42 15,9 C 16,1 C 12,2 C 81 % 1002,2 hPa 0,0 l/m 0 min 0 min 221 W/m 12,9 km/h (3 Bft) 97,87 %
22.09.2023 10:44 16,0 C 16,1 C 12,2 C 82 % 1002,2 hPa 0,0 l/m 0 min 0 min 178 W/m 29,0 km/h (5 Bft) 97,87 %
22.09.2023 10:46 16,0 C 16,1 C 12,2 C 81 % 1002,2 hPa 0,0 l/m 0 min 0 min 193 W/m 41,8 km/h (6 Bft) 97,87 %
22.09.2023 10:48 16,0 C 16,1 C 12,2 C 81 % 1002,2 hPa 0,0 l/m 0 min 0 min 204 W/m 29,0 km/h (5 Bft) 97,87 %
22.09.2023 10:50 16,0 C 16,1 C 12,2 C 81 % 1002,3 hPa 0,0 l/m 2 min 0 min 280 W/m 19,3 km/h (3 Bft) 97,87 %
22.09.2023 10:52 16,1 C 16,7 C 12,2 C 81 % 1002,1 hPa 0,0 l/m 2 min 0 min 502 W/m 16,1 km/h (3 Bft) 95,74 %
22.09.2023 10:54 16,1 C 16,7 C 12,2 C 81 % 1002,1 hPa 0,0 l/m 2 min 0 min 426 W/m 25,7 km/h (4 Bft) 93,48 %
22.09.2023 10:56 16,1 C 16,7 C 12,2 C 81 % 1002,1 hPa 0,0 l/m 0 min 0 min 114 W/m 19,3 km/h (3 Bft) 97,87 %
22.09.2023 10:58 16,2 C 16,7 C 12,2 C 80 % 1002,0 hPa 0,0 l/m 0 min 0 min 99 W/m 19,3 km/h (3 Bft) 93,62 %
22.09.2023 11:00 16,2 C 16,7 C 12,2 C 81 % 1001,9 hPa 0,0 l/m 0 min 0 min 107 W/m 16,1 km/h (3 Bft) 97,87 %
22.09.2023 11:02 16,3 C 16,7 C 12,2 C 81 % 1002,0 hPa 0,0 l/m 0 min 0 min 165 W/m 22,5 km/h (4 Bft) 97,87 %
22.09.2023 11:04 16,3 C 16,7 C 12,2 C 80 % 1002,0 hPa 0,0 l/m 0 min 0 min 246 W/m 29,0 km/h (5 Bft) 98,00 %
22.09.2023 11:06 16,3 C 16,7 C 12,2 C 80 % 1002,0 hPa 0,0 l/m 0 min 0 min 207 W/m 22,5 km/h (4 Bft) 97,87 %
22.09.2023 11:08 16,3 C 16,7 C 12,2 C 80 % 1002,0 hPa 0,0 l/m 0 min 0 min 207 W/m 19,3 km/h (3 Bft) 93,62 %
22.09.2023 11:10 16,2 C 16,7 C 12,2 C 80 % 1002,0 hPa 0,0 l/m 0 min 0 min 207 W/m 22,5 km/h (4 Bft) 100,00 %
22.09.2023 11:12 16,3 C 17,2 C 12,2 C 80 % 1001,9 hPa 0,0 l/m 0 min 0 min 207 W/m 25,7 km/h (4 Bft) 97,87 %
22.09.2023 11:14 16,3 C 18,3 C 12,2 C 80 % 1002,0 hPa 0,0 l/m 0 min 0 min 194 W/m 29,0 km/h (5 Bft) 97,83 %
22.09.2023 11:16 16,3 C 18,9 C 12,2 C 80 % 1001,9 hPa 0,0 l/m 0 min 0 min 181 W/m 16,1 km/h (3 Bft) 97,87 %
22.09.2023 11:18 16,4 C 18,9 C 12,8 C 80 % 1002,0 hPa 0,0 l/m 0 min 0 min 248 W/m 22,5 km/h (4 Bft) 100,00 %
22.09.2023 11:20 16,5 C 18,3 C 12,8 C 80 % 1001,9 hPa 0,0 l/m 0 min 0 min 195 W/m 16,1 km/h (3 Bft) 97,87 %
22.09.2023 11:22 16,6 C 18,3 C 12,8 C 80 % 1002,0 hPa 0,0 l/m 0 min 0 min 159 W/m 29,0 km/h (5 Bft) 100,00 %
22.09.2023 11:24 16,6 C 17,8 C 12,8 C 79 % 1001,9 hPa 0,0 l/m 0 min 0 min 159 W/m 35,4 km/h (5 Bft) 100,00 %
22.09.2023 11:26 16,6 C 17,8 C 12,8 C 78 % 1001,9 hPa 0,0 l/m 0 min 0 min 165 W/m 29,0 km/h (5 Bft) 100,00 %
22.09.2023 11:28 16,6 C 16,7 C 12,8 C 77 % 1002,0 hPa 0,0 l/m 0 min 0 min 137 W/m 22,5 km/h (4 Bft) 100,00 %
22.09.2023 11:30 16,4 C 16,1 C 12,2 C 77 % 1001,9 hPa 0,0 l/m 0 min 0 min 90 W/m 38,6 km/h (5 Bft) 100,00 %
22.09.2023 11:32 16,3 C 16,1 C 12,2 C 77 % 1001,9 hPa 0,0 l/m 0 min 0 min 92 W/m 29,0 km/h (5 Bft) 97,87 %
22.09.2023 11:34 16,2 C 15,6 C 12,2 C 77 % 1001,9 hPa 0,0 l/m 0 min 0 min 92 W/m 19,3 km/h (3 Bft) 100,00 %
22.09.2023 11:36 16,2 C 16,1 C 12,2 C 78 % 1001,9 hPa 0,0 l/m 0 min 0 min 94 W/m 12,9 km/h (3 Bft) 100,00 %
22.09.2023 11:38 16,2 C 16,1 C 11,7 C 78 % 1002,0 hPa 0,0 l/m 0 min 0 min 106 W/m 22,5 km/h (4 Bft) 100,00 %
22.09.2023 11:40 16,1 C 16,1 C 11,7 C 78 % 1002,0 hPa 0,0 l/m 0 min 0 min 155 W/m 12,9 km/h (3 Bft) 100,00 %
22.09.2023 11:42 16,1 C 16,7 C 12,2 C 79 % 1002,0 hPa 0,0 l/m 0 min 0 min 160 W/m 19,3 km/h (3 Bft) 100,00 %
22.09.2023 11:44 16,1 C 17,8 C 12,2 C 79 % 1001,9 hPa 0,0 l/m 2 min 0 min 407 W/m 12,9 km/h (3 Bft) 100,00 %
22.09.2023 11:46 16,1 C 17,8 C 12,2 C 79 % 1002,0 hPa 0,0 l/m 2 min 0 min 700 W/m 16,1 km/h (3 Bft) 100,00 %
22.09.2023 11:48 16,2 C 17,2 C 12,2 C 79 % 1002,0 hPa 0,0 l/m 0 min 0 min 133 W/m 19,3 km/h (3 Bft) 100,00 %
22.09.2023 11:50 16,2 C 16,7 C 12,2 C 78 % 1002,0 hPa 0,0 l/m 0 min 0 min 125 W/m 16,1 km/h (3 Bft) 100,00 %
22.09.2023 11:52 16,2 C 16,7 C 12,8 C 78 % 1002,0 hPa 0,0 l/m 0 min 0 min 121 W/m 19,3 km/h (3 Bft) 100,00 %
22.09.2023 11:54 16,2 C 16,1 C 12,8 C 77 % 1002,0 hPa 0,0 l/m 0 min 0 min 113 W/m 25,7 km/h (4 Bft) 96,55 %
22.09.2023 11:56 16,1 C 15,6 C 12,2 C 77 % 1002,1 hPa 0,0 l/m 0 min 0 min 84 W/m 16,1 km/h (3 Bft) 100,00 %
22.09.2023 11:58 16,1 C 16,7 C 12,2 C 78 % 1002,1 hPa 0,0 l/m 0 min 0 min 110 W/m 16,1 km/h (3 Bft) 100,00 %
22.09.2023 12:00 16,1 C 18,3 C 13,3 C 78 % 1002,1 hPa 0,0 l/m 2 min 0 min 538 W/m 19,3 km/h (3 Bft) 97,83 %
22.09.2023 12:02 16,2 C 18,3 C 13,9 C 78 % 1002,1 hPa 0,0 l/m 2 min 0 min 691 W/m 22,5 km/h (4 Bft) 97,87 %
22.09.2023 12:04 16,3 C 17,8 C 13,9 C 78 % 1002,1 hPa 0,0 l/m 2 min 0 min 383 W/m 16,1 km/h (3 Bft) 97,73 %
22.09.2023 12:08 16,4 C 16,7 C 13,3 C 76 % 1002,2 hPa 0,0 l/m 0 min 0 min 156 W/m 29,0 km/h (5 Bft) 97,85 %
22.09.2023 12:10 16,4 C 16,7 C 12,8 C 75 % 1002,2 hPa 0,0 l/m 0 min 0 min 122 W/m 25,7 km/h (4 Bft) 95,74 %
22.09.2023 12:12 16,4 C 16,1 C 12,8 C 74 % 1002,3 hPa 0,0 l/m 0 min 0 min 122 W/m 19,3 km/h (3 Bft) 97,87 %
22.09.2023 12:16 16,4 C 16,7 C 12,8 C 75 % 1002,4 hPa 0,0 l/m 0 min 0 min 145 W/m 25,7 km/h (4 Bft) 97,87 %
22.09.2023 12:18 16,4 C 16,1 C 12,8 C 75 % 1002,3 hPa 0,0 l/m 0 min 0 min 158 W/m 22,5 km/h (4 Bft) 97,83 %
22.09.2023 12:20 16,3 C 16,1 C 12,2 C 74 % 1002,3 hPa 0,0 l/m 0 min 0 min 136 W/m 32,2 km/h (5 Bft) 97,87 %
22.09.2023 12:22 16,3 C 16,1 C 12,2 C 74 % 1002,3 hPa 0,0 l/m 0 min 0 min 143 W/m 22,5 km/h (4 Bft) 97,87 %
22.09.2023 12:24 16,3 C 16,1 C 12,2 C 74 % 1002,3 hPa 0,0 l/m 0 min 0 min 181 W/m 35,4 km/h (5 Bft) 95,74 %
22.09.2023 12:26 16,4 C 16,7 C 12,8 C 75 % 1002,3 hPa 0,0 l/m 0 min 0 min 241 W/m 25,7 km/h (4 Bft) 95,74 %
22.09.2023 12:28 16,4 C 16,7 C 12,8 C 75 % 1002,3 hPa 0,0 l/m 0 min 0 min 212 W/m 29,0 km/h (5 Bft) 95,74 %
22.09.2023 12:30 16,5 C 16,7 C 12,8 C 74 % 1002,4 hPa 0,0 l/m 0 min 0 min 221 W/m 35,4 km/h (5 Bft) 97,87 %
22.09.2023 12:32 16,6 C 17,2 C 12,8 C 74 % 1002,3 hPa 0,0 l/m 0 min 0 min 238 W/m 32,2 km/h (5 Bft) 97,87 %
22.09.2023 12:34 16,7 C 17,2 C 12,8 C 73 % 1002,4 hPa 0,0 l/m 0 min 0 min 250 W/m 29,0 km/h (5 Bft) 93,62 %
22.09.2023 12:36 16,8 C 17,2 C 13,3 C 73 % 1002,3 hPa 0,0 l/m 0 min 0 min 271 W/m 25,7 km/h (4 Bft) 97,87 %
22.09.2023 12:38 17,0 C 17,2 C 13,3 C 72 % 1002,4 hPa 0,0 l/m 0 min 0 min 244 W/m 38,6 km/h (5 Bft) 95,74 %
22.09.2023 12:40 17,0 C 17,2 C 13,3 C 71 % 1002,4 hPa 0,0 l/m 0 min 0 min 257 W/m 35,4 km/h (5 Bft) 95,74 %
22.09.2023 12:42 17,1 C 17,2 C 13,3 C 71 % 1002,6 hPa 0,0 l/m 0 min 0 min 261 W/m 32,2 km/h (5 Bft) 95,65 %
22.09.2023 12:44 17,1 C 17,2 C 13,3 C 71 % 1002,4 hPa 0,0 l/m 0 min 0 min 237 W/m 25,7 km/h (4 Bft) 97,87 %
22.09.2023 12:46 17,1 C 17,2 C 13,3 C 72 % 1002,4 hPa 0,0 l/m 0 min 0 min 228 W/m 29,0 km/h (5 Bft) 93,62 %
22.09.2023 12:48 17,1 C 16,7 C 13,3 C 72 % 1002,5 hPa 0,0 l/m 0 min 0 min 191 W/m 25,7 km/h (4 Bft) 97,87 %
22.09.2023 12:50 17,1 C 16,7 C 13,3 C 72 % 1002,6 hPa 0,0 l/m 0 min 0 min 174 W/m 25,7 km/h (4 Bft) 93,62 %
22.09.2023 12:52 17,1 C 16,7 C 13,3 C 72 % 1002,6 hPa 0,0 l/m 0 min 0 min 216 W/m 29,0 km/h (5 Bft) 97,87 %
22.09.2023 12:54 16,9 C 16,7 C 12,8 C 71 % 1002,5 hPa 0,0 l/m 0 min 0 min 251 W/m 35,4 km/h (5 Bft) 97,87 %
22.09.2023 12:56 16,9 C 16,7 C 12,8 C 71 % 1002,6 hPa 0,0 l/m 0 min 0 min 247 W/m 29,0 km/h (5 Bft) 95,74 %
22.09.2023 12:58 16,9 C 16,7 C 12,8 C 71 % 1002,6 hPa 0,0 l/m 0 min 0 min 256 W/m 25,7 km/h (4 Bft) 95,74 %
22.09.2023 13:00 16,9 C 16,7 C 12,8 C 72 % 1002,6 hPa 0,0 l/m 0 min 0 min 212 W/m 19,3 km/h (3 Bft) 95,74 %
22.09.2023 13:02 16,9 C 16,7 C 12,8 C 73 % 1002,6 hPa 0,0 l/m 0 min 0 min 162 W/m 16,1 km/h (3 Bft) 97,83 %
22.09.2023 13:04 16,8 C 16,7 C 12,8 C 72 % 1002,6 hPa 0,0 l/m 0 min 0 min 138 W/m 19,3 km/h (3 Bft) 96,00 %
22.09.2023 13:06 16,8 C 16,7 C 12,8 C 73 % 1002,6 hPa 0,0 l/m 0 min 0 min 137 W/m 19,3 km/h (3 Bft) 93,62 %
22.09.2023 13:08 16,8 C 16,7 C 12,8 C 73 % 1002,6 hPa 0,0 l/m 0 min 0 min 178 W/m 16,1 km/h (3 Bft) 95,74 %
22.09.2023 13:10 16,8 C 16,7 C 12,8 C 73 % 1002,7 hPa 0,0 l/m 0 min 0 min 245 W/m 19,3 km/h (3 Bft) 93,62 %
22.09.2023 13:12 16,8 C 17,2 C 12,8 C 74 % 1002,7 hPa 0,0 l/m 0 min 0 min 281 W/m 12,9 km/h (3 Bft) 97,87 %
22.09.2023 13:14 16,9 C 17,2 C 13,3 C 74 % 1002,7 hPa 0,0 l/m 0 min 0 min 297 W/m 16,1 km/h (3 Bft) 97,87 %
22.09.2023 13:16 17,1 C 17,2 C 13,3 C 72 % 1002,7 hPa 0,0 l/m 0 min 0 min 278 W/m 16,1 km/h (3 Bft) 97,87 %
22.09.2023 13:18 17,1 C 17,8 C 13,3 C 72 % 1002,9 hPa 0,0 l/m 0 min 0 min 289 W/m 19,3 km/h (3 Bft) 97,87 %
22.09.2023 13:20 17,2 C 17,2 C 13,3 C 72 % 1002,8 hPa 0,0 l/m 0 min 0 min 276 W/m 22,5 km/h (4 Bft) 97,87 %
22.09.2023 13:22 17,2 C 17,2 C 13,3 C 72 % 1002,8 hPa 0,0 l/m 0 min 0 min 262 W/m 12,9 km/h (3 Bft) 97,83 %
22.09.2023 13:24 17,2 C 17,8 C 13,3 C 72 % 1002,8 hPa 0,0 l/m 0 min 0 min 301 W/m 25,7 km/h (4 Bft) 95,74 %
22.09.2023 13:26 17,3 C 18,3 C 13,9 C 72 % 1002,8 hPa 0,0 l/m 2 min 0 min 327 W/m 19,3 km/h (3 Bft) 97,87 %
22.09.2023 13:28 17,4 C 17,8 C 13,9 C 71 % 1002,9 hPa 0,0 l/m 2 min 0 min 310 W/m 25,7 km/h (4 Bft) 97,87 %
22.09.2023 13:30 17,5 C 17,8 C 13,9 C 71 % 1002,8 hPa 0,0 l/m 0 min 0 min 241 W/m 16,1 km/h (3 Bft) 97,87 %
22.09.2023 13:32 17,5 C 17,8 C 13,9 C 71 % 1002,9 hPa 0,0 l/m 0 min 0 min 249 W/m 16,1 km/h (3 Bft) 97,50 %
22.09.2023 13:34 17,6 C 17,8 C 13,9 C 72 % 1002,8 hPa 0,0 l/m 0 min 0 min 233 W/m 9,7 km/h (2 Bft) 97,87 %
22.09.2023 13:36 17,6 C 17,8 C 13,9 C 72 % 1002,9 hPa 0,0 l/m 0 min 0 min 251 W/m 19,3 km/h (3 Bft) 97,87 %
22.09.2023 13:38 17,5 C 17,2 C 13,3 C 71 % 1002,9 hPa 0,0 l/m 0 min 0 min 252 W/m 25,7 km/h (4 Bft) 97,87 %
22.09.2023 13:40 17,5 C 17,2 C 13,3 C 70 % 1002,9 hPa 0,0 l/m 0 min 0 min 222 W/m 22,5 km/h (4 Bft) 97,87 %
22.09.2023 13:42 17,5 C 17,8 C 13,3 C 71 % 1002,8 hPa 0,0 l/m 0 min 0 min 277 W/m 12,9 km/h (3 Bft) 97,87 %
22.09.2023 13:44 17,6 C 17,8 C 13,9 C 71 % 1002,8 hPa 0,0 l/m 0 min 0 min 255 W/m 16,1 km/h (3 Bft) 97,87 %
22.09.2023 13:46 17,7 C 18,3 C 13,9 C 71 % 1002,8 hPa 0,0 l/m 2 min 0 min 379 W/m 19,3 km/h (3 Bft) 95,65 %
22.09.2023 13:48 17,8 C 18,3 C 13,9 C 71 % 1002,7 hPa 0,0 l/m 0 min 0 min 226 W/m 19,3 km/h (3 Bft) 97,87 %
22.09.2023 13:50 17,9 C 18,3 C 13,9 C 70 % 1002,8 hPa 0,0 l/m 0 min 0 min 213 W/m 22,5 km/h (4 Bft) 97,87 %
22.09.2023 13:52 18,1 C 18,3 C 13,9 C 69 % 1002,8 hPa 0,0 l/m 2 min 0 min 591 W/m 19,3 km/h (3 Bft) 97,87 %
22.09.2023 13:54 18,2 C 18,3 C 13,9 C 70 % 1002,8 hPa 0,0 l/m 2 min 0 min 726 W/m 16,1 km/h (3 Bft) 95,74 %
22.09.2023 13:56 18,2 C 18,3 C 13,9 C 70 % 1002,8 hPa 0,0 l/m 2 min 0 min 754 W/m 22,5 km/h (4 Bft) 97,87 %
22.09.2023 13:58 18,3 C 18,3 C 13,9 C 68 % 1002,8 hPa 0,0 l/m 2 min 0 min 787 W/m 29,0 km/h (5 Bft) 95,74 %
22.09.2023 14:00 18,3 C 18,9 C 13,9 C 68 % 1002,7 hPa 0,0 l/m 2 min 0 min 795 W/m 22,5 km/h (4 Bft) 95,74 %
22.09.2023 14:02 18,4 C 19,4 C 13,9 C 68 % 1002,8 hPa 0,0 l/m 2 min 0 min 796 W/m 22,5 km/h (4 Bft) 97,87 %
22.09.2023 14:04 18,6 C 19,4 C 14,4 C 69 % 1002,8 hPa 0,0 l/m 2 min 0 min 801 W/m 16,1 km/h (3 Bft) 97,96 %
22.09.2023 14:06 18,7 C 19,4 C 14,4 C 67 % 1002,8 hPa 0,0 l/m 2 min 0 min 826 W/m 29,0 km/h (5 Bft) 97,87 %
22.09.2023 14:08 18,8 C 20,0 C 14,4 C 67 % 1002,8 hPa 0,0 l/m 2 min 0 min 835 W/m 22,5 km/h (4 Bft) 97,83 %
22.09.2023 14:10 18,9 C 20,0 C 14,4 C 68 % 1002,8 hPa 0,0 l/m 2 min 0 min 830 W/m 19,3 km/h (3 Bft) 100,00 %
22.09.2023 14:12 18,9 C 20,0 C 14,4 C 67 % 1002,8 hPa 0,0 l/m 2 min 0 min 832 W/m 16,1 km/h (3 Bft) 100,00 %
22.09.2023 14:14 19,1 C 21,1 C 14,4 C 69 % 1002,8 hPa 0,0 l/m 2 min 0 min 762 W/m 22,5 km/h (4 Bft) 100,00 %
22.09.2023 14:16 19,1 C 21,1 C 14,4 C 67 % 1002,9 hPa 0,0 l/m 2 min 0 min 794 W/m 16,1 km/h (3 Bft) 100,00 %
22.09.2023 14:18 19,2 C 21,1 C 15,0 C 67 % 1002,9 hPa 0,0 l/m 2 min 0 min 803 W/m 12,9 km/h (3 Bft) 100,00 %
22.09.2023 14:20 19,3 C 22,2 C 15,0 C 66 % 1002,9 hPa 0,0 l/m 2 min 0 min 798 W/m 25,7 km/h (4 Bft) 100,00 %
22.09.2023 14:22 19,3 C 20,6 C 14,4 C 63 % 1002,9 hPa 0,0 l/m 2 min 0 min 791 W/m 29,0 km/h (5 Bft) 97,87 %
22.09.2023 14:24 19,1 C 18,9 C 14,4 C 64 % 1002,9 hPa 0,0 l/m 0 min 0 min 224 W/m 25,7 km/h (4 Bft) 100,00 %
22.09.2023 14:26 18,9 C 18,9 C 14,4 C 64 % 1002,8 hPa 0,0 l/m 0 min 0 min 209 W/m 29,0 km/h (5 Bft) 100,00 %
22.09.2023 14:28 18,9 C 18,9 C 14,4 C 66 % 1002,8 hPa 0,0 l/m 0 min 0 min 203 W/m 6,4 km/h (2 Bft) 100,00 %
22.09.2023 14:30 18,9 C 20,6 C 14,4 C 67 % 1002,8 hPa 0,0 l/m 2 min 0 min 493 W/m 16,1 km/h (3 Bft) 95,65 %
22.09.2023 14:32 18,9 C 20,6 C 14,4 C 68 % 1002,8 hPa 0,0 l/m 2 min 0 min 737 W/m 12,9 km/h (3 Bft) 97,87 %
22.09.2023 14:34 18,9 C 20,0 C 14,4 C 67 % 1002,8 hPa 0,0 l/m 2 min 0 min 722 W/m 16,1 km/h (3 Bft) 97,87 %
22.09.2023 14:36 19,0 C 20,0 C 14,4 C 67 % 1002,8 hPa 0,0 l/m 2 min 0 min 724 W/m 12,9 km/h (3 Bft) 95,74 %
22.09.2023 14:38 19,1 C 20,0 C 14,4 C 67 % 1002,8 hPa 0,0 l/m 2 min 0 min 727 W/m 12,9 km/h (3 Bft) 97,87 %
22.09.2023 14:40 19,2 C 19,4 C 14,4 C 66 % 1002,8 hPa 0,0 l/m 2 min 0 min 719 W/m 19,3 km/h (3 Bft) 97,87 %
22.09.2023 14:42 19,3 C 19,4 C 14,4 C 65 % 1002,8 hPa 0,0 l/m 2 min 0 min 685 W/m 19,3 km/h (3 Bft) 95,74 %
22.09.2023 14:44 19,2 C 18,9 C 14,4 C 64 % 1002,9 hPa 0,0 l/m 2 min 0 min 503 W/m 22,5 km/h (4 Bft) 95,74 %
22.09.2023 14:46 19,1 C 18,9 C 14,4 C 64 % 1002,8 hPa 0,0 l/m 0 min 0 min 173 W/m 22,5 km/h (4 Bft) 95,74 %
22.09.2023 14:48 19,0 C 18,3 C 14,4 C 64 % 1002,8 hPa 0,0 l/m 0 min 0 min 192 W/m 22,5 km/h (4 Bft) 95,74 %
22.09.2023 14:50 18,9 C 18,3 C 13,9 C 65 % 1002,8 hPa 0,0 l/m 0 min 0 min 182 W/m 19,3 km/h (3 Bft) 97,83 %
22.09.2023 14:52 18,9 C 18,3 C 13,9 C 65 % 1002,9 hPa 0,0 l/m 0 min 0 min 183 W/m 22,5 km/h (4 Bft) 93,62 %
22.09.2023 14:54 18,8 C 18,3 C 13,9 C 65 % 1002,8 hPa 0,0 l/m 0 min 0 min 176 W/m 12,9 km/h (3 Bft) 95,74 %
22.09.2023 14:56 18,8 C 18,3 C 14,4 C 66 % 1002,8 hPa 0,0 l/m 2 min 0 min 590 W/m 12,9 km/h (3 Bft) 95,74 %
22.09.2023 14:58 18,8 C 18,3 C 13,9 C 65 % 1002,7 hPa 0,0 l/m 2 min 0 min 453 W/m 12,9 km/h (3 Bft) 95,74 %
22.09.2023 15:00 18,7 C 17,8 C 13,9 C 66 % 1002,8 hPa 0,0 l/m 0 min 0 min 100 W/m 6,4 km/h (2 Bft) 95,74 %
22.09.2023 15:02 18,6 C 17,8 C 13,9 C 66 % 1002,8 hPa 0,0 l/m 0 min 0 min 146 W/m 16,1 km/h (3 Bft) 93,62 %
22.09.2023 15:04 18,6 C 17,8 C 13,9 C 66 % 1002,8 hPa 0,0 l/m 0 min 0 min 183 W/m 16,1 km/h (3 Bft) 95,56 %
22.09.2023 15:06 18,5 C 18,3 C 13,9 C 66 % 1002,8 hPa 0,0 l/m 0 min 0 min 186 W/m 9,7 km/h (2 Bft) 95,74 %
22.09.2023 15:08 18,5 C 18,3 C 13,9 C 66 % 1002,7 hPa 0,0 l/m 0 min 0 min 195 W/m 22,5 km/h (4 Bft) 95,74 %
22.09.2023 15:10 18,5 C 18,3 C 13,9 C 67 % 1002,6 hPa 0,0 l/m 0 min 0 min 279 W/m 12,9 km/h (3 Bft) 97,87 %
22.09.2023 15:12 18,5 C 18,3 C 13,9 C 66 % 1002,6 hPa 0,0 l/m 2 min 0 min 430 W/m 16,1 km/h (3 Bft) 97,87 %
22.09.2023 15:14 18,6 C 18,3 C 13,9 C 65 % 1002,6 hPa 0,0 l/m 0 min 0 min 223 W/m 19,3 km/h (3 Bft) 95,74 %
22.09.2023 15:16 18,5 C 18,3 C 13,9 C 66 % 1002,6 hPa 0,0 l/m 0 min 0 min 217 W/m 16,1 km/h (3 Bft) 97,83 %
22.09.2023 15:18 18,6 C 18,3 C 13,9 C 66 % 1002,6 hPa 0,0 l/m 0 min 0 min 236 W/m 9,7 km/h (2 Bft) 97,87 %
22.09.2023 15:20 18,6 C 18,3 C 13,9 C 66 % 1002,6 hPa 0,0 l/m 0 min 0 min 186 W/m 19,3 km/h (3 Bft) 97,87 %
22.09.2023 15:22 18,6 C 18,9 C 13,9 C 66 % 1002,6 hPa 0,0 l/m 0 min 0 min 246 W/m 9,7 km/h (2 Bft) 93,62 %
22.09.2023 15:24 18,7 C 18,3 C 13,9 C 66 % 1002,6 hPa 0,0 l/m 0 min 0 min 200 W/m 19,3 km/h (3 Bft) 95,74 %
22.09.2023 15:26 18,7 C 18,9 C 13,9 C 66 % 1002,6 hPa 0,0 l/m 0 min 0 min 174 W/m 22,5 km/h (4 Bft) 97,87 %
22.09.2023 15:28 18,7 C 18,9 C 14,4 C 65 % 1002,6 hPa 0,0 l/m 2 min 0 min 649 W/m 22,5 km/h (4 Bft) 100,00 %
22.09.2023 15:30 18,8 C 18,9 C 14,4 C 65 % 1002,5 hPa 0,0 l/m 2 min 0 min 650 W/m 16,1 km/h (3 Bft) 100,00 %
22.09.2023 15:32 18,9 C 18,9 C 14,4 C 65 % 1002,5 hPa 0,0 l/m 2 min 0 min 633 W/m 12,9 km/h (3 Bft) 97,87 %
22.09.2023 15:34 19,0 C 18,9 C 14,4 C 66 % 1002,5 hPa 0,0 l/m 2 min 0 min 596 W/m 12,9 km/h (3 Bft) 97,87 %
22.09.2023 15:36 19,0 C 18,9 C 14,4 C 65 % 1002,5 hPa 0,0 l/m 2 min 0 min 607 W/m 6,4 km/h (2 Bft) 100,00 %
22.09.2023 15:38 19,1 C 18,9 C 14,4 C 65 % 1002,4 hPa 0,0 l/m 2 min 0 min 641 W/m 16,1 km/h (3 Bft) 100,00 %
22.09.2023 15:40 19,1 C 18,9 C 14,4 C 65 % 1002,4 hPa 0,0 l/m 2 min 0 min 636 W/m 16,1 km/h (3 Bft) 100,00 %
22.09.2023 15:42 19,2 C 18,9 C 14,4 C 64 % 1002,3 hPa 0,0 l/m 2 min 0 min 666 W/m 12,9 km/h (3 Bft) 100,00 %
22.09.2023 15:44 19,2 C 18,9 C 14,4 C 64 % 1002,4 hPa 0,0 l/m 0 min 0 min 244 W/m 29,0 km/h (5 Bft) 97,87 %
22.09.2023 15:46 19,2 C 18,9 C 14,4 C 63 % 1002,5 hPa 0,0 l/m 0 min 0 min 155 W/m 12,9 km/h (3 Bft) 100,00 %
22.09.2023 15:48 19,1 C 18,9 C 14,4 C 62 % 1002,5 hPa 0,0 l/m 0 min 0 min 200 W/m 25,7 km/h (4 Bft) 100,00 %
22.09.2023 15:50 19,1 C 18,3 C 14,4 C 62 % 1002,5 hPa 0,0 l/m 0 min 0 min 181 W/m 12,9 km/h (3 Bft) 100,00 %
22.09.2023 15:52 19,1 C 18,3 C 14,4 C 63 % 1002,5 hPa 0,0 l/m 0 min 0 min 181 W/m 19,3 km/h (3 Bft) 95,74 %
22.09.2023 15:54 18,9 C 18,3 C 14,4 C 63 % 1002,5 hPa 0,0 l/m 2 min 0 min 268 W/m 16,1 km/h (3 Bft) 100,00 %
22.09.2023 15:56 18,9 C 18,3 C 14,4 C 63 % 1002,4 hPa 0,0 l/m 0 min 0 min 193 W/m 12,9 km/h (3 Bft) 97,87 %
22.09.2023 15:58 18,8 C 18,3 C 13,9 C 64 % 1002,5 hPa 0,0 l/m 0 min 0 min 145 W/m 16,1 km/h (3 Bft) 100,00 %
22.09.2023 16:00 18,7 C 18,3 C 13,9 C 64 % 1002,4 hPa 0,0 l/m 0 min 0 min 124 W/m 9,7 km/h (2 Bft) 100,00 %
22.09.2023 16:02 18,7 C 18,3 C 13,9 C 64 % 1002,4 hPa 0,0 l/m 0 min 0 min 156 W/m 6,4 km/h (2 Bft) 100,00 %
22.09.2023 16:04 18,7 C 18,3 C 13,9 C 65 % 1002,4 hPa 0,0 l/m 0 min 0 min 168 W/m 3,2 km/h (1 Bft) 97,87 %
22.09.2023 16:06 18,7 C 18,3 C 13,9 C 66 % 1002,5 hPa 0,0 l/m 0 min 0 min 182 W/m 6,4 km/h (2 Bft) 100,00 %
22.09.2023 16:08 18,6 C 18,3 C 13,9 C 66 % 1002,4 hPa 0,0 l/m 0 min 0 min 173 W/m 6,4 km/h (2 Bft) 100,00 %
22.09.2023 16:10 18,6 C 18,3 C 13,9 C 67 % 1002,5 hPa 0,0 l/m 0 min 0 min 166 W/m 6,4 km/h (2 Bft) 100,00 %
22.09.2023 16:12 18,6 C 18,3 C 13,9 C 66 % 1002,5 hPa 0,0 l/m 0 min 0 min 190 W/m 3,2 km/h (1 Bft) 95,74 %
22.09.2023 16:14 18,6 C 18,3 C 14,4 C 67 % 1002,4 hPa 0,0 l/m 0 min 0 min 206 W/m 6,4 km/h (2 Bft) 100,00 %
22.09.2023 16:16 18,6 C 18,9 C 14,4 C 67 % 1002,4 hPa 0,0 l/m 2 min 0 min 253 W/m 3,2 km/h (1 Bft) 100,00 %
22.09.2023 16:18 18,6 C 18,9 C 14,4 C 67 % 1002,4 hPa 0,0 l/m 2 min 0 min 281 W/m 6,4 km/h (2 Bft) 100,00 %
22.09.2023 16:20 18,7 C 18,9 C 14,4 C 68 % 1002,4 hPa 0,0 l/m 2 min 0 min 258 W/m 6,4 km/h (2 Bft) 100,00 %
22.09.2023 16:26 18,8 C 19,4 C 14,4 C 66 % 1002,4 hPa 0,0 l/m 0 min 0 min 181 W/m 3,2 km/h (1 Bft) 100,00 %
22.09.2023 16:28 18,8 C 18,9 C 14,4 C 67 % 1002,4 hPa 0,0 l/m 0 min 0 min 149 W/m 6,4 km/h (2 Bft) 97,96 %
22.09.2023 16:30 18,8 C 18,9 C 14,4 C 67 % 1002,4 hPa 0,0 l/m 0 min 0 min 144 W/m 6,4 km/h (2 Bft) 93,62 %
22.09.2023 16:32 18,8 C 18,9 C 14,4 C 66 % 1002,4 hPa 0,0 l/m 0 min 0 min 153 W/m 6,4 km/h (2 Bft) 97,87 %
22.09.2023 16:34 18,8 C 18,9 C 14,4 C 67 % 1002,3 hPa 0,0 l/m 0 min 0 min 132 W/m 3,2 km/h (1 Bft) 97,87 %
22.09.2023 16:36 18,9 C 18,3 C 14,4 C 67 % 1002,3 hPa 0,0 l/m 0 min 0 min 114 W/m 3,2 km/h (1 Bft) 98,11 %
22.09.2023 16:38 18,9 C 18,3 C 14,4 C 67 % 1002,3 hPa 0,0 l/m 0 min 0 min 99 W/m 6,4 km/h (2 Bft) 95,74 %
22.09.2023 16:40 18,9 C 18,3 C 14,4 C 67 % 1002,4 hPa 0,0 l/m 0 min 0 min 81 W/m 3,2 km/h (1 Bft) 95,74 %
22.09.2023 16:42 18,9 C 18,3 C 13,9 C 67 % 1002,4 hPa 0,0 l/m 0 min 0 min 62 W/m 3,2 km/h (1 Bft) 95,74 %
22.09.2023 16:44 18,8 C 17,8 C 13,9 C 67 % 1002,3 hPa 0,0 l/m 0 min 0 min 50 W/m 3,2 km/h (1 Bft) 95,65 %
22.09.2023 16:46 18,8 C 17,8 C 13,9 C 67 % 1002,3 hPa 0,0 l/m 0 min 0 min 44 W/m 9,7 km/h (2 Bft) 95,74 %
22.09.2023 16:48 18,8 C 17,8 C 13,9 C 66 % 1002,3 hPa 0,0 l/m 0 min 0 min 42 W/m 6,4 km/h (2 Bft) 95,74 %
22.09.2023 16:50 18,8 C 17,8 C 13,9 C 66 % 1002,3 hPa 0,0 l/m 0 min 0 min 42 W/m 0,0 km/h (0 Bft) 63,83 %
22.09.2023 16:52 18,7 C 17,8 C 13,9 C 67 % 1002,3 hPa 0,0 l/m 0 min 0 min 40 W/m 0,0 km/h (0 Bft) 84,78 %
22.09.2023 16:54 18,8 C 17,2 C 13,3 C 68 % 1002,3 hPa 0,0 l/m 0 min 0 min 39 W/m 0,0 km/h (0 Bft) 95,83 %
22.09.2023 16:56 18,7 C 17,2 C 13,3 C 68 % 1002,3 hPa 0,0 l/m 0 min 0 min 39 W/m 3,2 km/h (1 Bft) 95,74 %
22.09.2023 16:58 18,7 C 17,2 C 13,3 C 67 % 1002,3 hPa 0,0 l/m 0 min 0 min 35 W/m 6,4 km/h (2 Bft) 93,62 %
22.09.2023 17:00 18,6 C 17,2 C 13,3 C 67 % 1002,3 hPa 0,0 l/m 0 min 0 min 31 W/m 3,2 km/h (1 Bft) 93,62 %
22.09.2023 17:02 18,6 C 17,2 C 13,3 C 67 % 1002,4 hPa 0,0 l/m 0 min 0 min 33 W/m 6,4 km/h (2 Bft) 95,74 %
22.09.2023 17:04 18,6 C 17,2 C 13,3 C 68 % 1002,4 hPa 0,0 l/m 0 min 0 min 36 W/m 6,4 km/h (2 Bft) 95,74 %
22.09.2023 17:10 18,6 C 17,2 C 13,3 C 70 % 1002,4 hPa 0,0 l/m 0 min 0 min 28 W/m 3,2 km/h (1 Bft) 93,33 %
22.09.2023 17:12 18,5 C 17,2 C 13,3 C 70 % 1002,5 hPa 0,0 l/m 0 min 2 min 16 W/m 0,0 km/h (0 Bft) 91,49 %
22.09.2023 17:14 18,4 C 17,2 C 12,8 C 70 % 1002,5 hPa 0,0 l/m 0 min 2 min 11 W/m 3,2 km/h (1 Bft) 91,49 %
22.09.2023 17:16 18,4 C 16,7 C 12,8 C 71 % 1002,6 hPa 0,0 l/m 0 min 2 min 9 W/m 3,2 km/h (1 Bft) 93,62 %
22.09.2023 17:18 18,4 C 16,7 C 12,8 C 72 % 1002,9 hPa 0,0 l/m 0 min 0 min 5 W/m 6,4 km/h (2 Bft) 93,62 %
22.09.2023 17:20 18,3 C 16,7 C 11,7 C 73 % 1003,2 hPa 0,0 l/m 0 min 2 min 0 W/m 6,4 km/h (2 Bft) 93,62 %
22.09.2023 17:22 18,2 C 16,1 C 10,6 C 75 % 1003,5 hPa 0,2 l/m 0 min 2 min 0 W/m 19,3 km/h (3 Bft) 95,74 %
22.09.2023 17:24 17,7 C 14,4 C 10,0 C 78 % 1003,9 hPa 0,8 l/m 0 min 2 min 0 W/m 19,3 km/h (3 Bft) 97,87 %
22.09.2023 17:26 16,9 C 12,8 C 9,4 C 80 % 1003,8 hPa 2,0 l/m 0 min 2 min 0 W/m 29,0 km/h (5 Bft) 93,62 %
22.09.2023 17:28 16,3 C 12,8 C 9,4 C 83 % 1003,8 hPa 1,0 l/m 0 min 2 min 0 W/m 19,3 km/h (3 Bft) 95,65 %
22.09.2023 17:30 15,8 C 12,2 C 9,4 C 85 % 1004,0 hPa 0,8 l/m 0 min 2 min 0 W/m 16,1 km/h (3 Bft) 95,74 %
22.09.2023 17:32 15,2 C 12,2 C 8,9 C 86 % 1003,9 hPa 0,8 l/m 0 min 2 min 0 W/m 22,5 km/h (4 Bft) 93,62 %
22.09.2023 17:34 14,8 C 12,2 C 8,9 C 88 % 1003,9 hPa 0,4 l/m 0 min 2 min 0 W/m 12,9 km/h (3 Bft) 95,74 %
22.09.2023 17:36 14,6 C 12,2 C 8,9 C 88 % 1003,9 hPa 0,2 l/m 0 min 2 min 0 W/m 19,3 km/h (3 Bft) 93,62 %
22.09.2023 17:38 14,3 C 12,2 C 8,9 C 89 % 1003,9 hPa 0,2 l/m 0 min 2 min 3 W/m 6,4 km/h (2 Bft) 97,87 %
22.09.2023 17:40 14,3 C 12,2 C 8,9 C 90 % 1003,9 hPa 0,0 l/m 0 min 2 min 5 W/m 3,2 km/h (1 Bft) 100,00 %
22.09.2023 17:42 14,3 C 12,2 C 8,9 C 90 % 1003,9 hPa 0,2 l/m 0 min 2 min 5 W/m 12,9 km/h (3 Bft) 100,00 %
22.09.2023 17:44 14,2 C 12,2 C 8,9 C 91 % 1003,9 hPa 0,2 l/m 0 min 2 min 7 W/m 6,4 km/h (2 Bft) 97,87 %
22.09.2023 17:46 14,0 C 12,2 C 8,9 C 91 % 1003,8 hPa 0,2 l/m 0 min 2 min 7 W/m 9,7 km/h (2 Bft) 97,87 %
22.09.2023 17:48 13,8 C 12,2 C 8,9 C 92 % 1003,9 hPa 0,2 l/m 0 min 2 min 9 W/m 9,7 km/h (2 Bft) 100,00 %
22.09.2023 17:50 13,7 C 12,2 C 8,9 C 92 % 1003,8 hPa 0,0 l/m 0 min 2 min 10 W/m 12,9 km/h (3 Bft) 100,00 %
22.09.2023 17:52 13,7 C 12,2 C 8,9 C 92 % 1003,7 hPa 0,2 l/m 0 min 2 min 12 W/m 6,4 km/h (2 Bft) 97,87 %
22.09.2023 17:54 13,6 C 12,2 C 8,9 C 92 % 1003,7 hPa 0,2 l/m 0 min 2 min 14 W/m 9,7 km/h (2 Bft) 100,00 %
22.09.2023 17:56 13,6 C 12,2 C 8,9 C 93 % 1003,6 hPa 0,2 l/m 0 min 2 min 16 W/m 9,7 km/h (2 Bft) 100,00 %
22.09.2023 17:58 13,6 C 12,2 C 8,9 C 93 % 1003,6 hPa 0,0 l/m 0 min 2 min 16 W/m 3,2 km/h (1 Bft) 100,00 %
22.09.2023 18:00 13,4 C 12,2 C 8,9 C 93 % 1003,6 hPa 0,0 l/m 0 min 2 min 17 W/m 6,4 km/h (2 Bft) 100,00 %
22.09.2023 18:02 13,4 C 12,2 C 8,9 C 93 % 1003,6 hPa 0,2 l/m 0 min 2 min 20 W/m 9,7 km/h (2 Bft) 100,00 %
22.09.2023 18:04 13,4 C 12,2 C 8,9 C 93 % 1003,5 hPa 0,0 l/m 0 min 2 min 28 W/m 0,0 km/h (0 Bft) 95,74 %
22.09.2023 18:08 13,4 C 12,2 C 8,9 C 94 % 1003,5 hPa 0,2 l/m 0 min 4 min 53 W/m 3,2 km/h (1 Bft) 98,90 %
22.09.2023 18:10 13,4 C 12,2 C 8,9 C 94 % 1003,5 hPa 0,0 l/m 0 min 2 min 74 W/m 0,0 km/h (0 Bft) 100,00 %
22.09.2023 18:12 13,4 C 12,2 C 8,9 C 94 % 1003,3 hPa 0,0 l/m 0 min 2 min 78 W/m 3,2 km/h (1 Bft) 97,87 %
22.09.2023 18:16 13,4 C 12,2 C 8,9 C 94 % 1003,3 hPa 0,2 l/m 0 min 0 min 87 W/m 0,0 km/h (0 Bft) 97,85 %
22.09.2023 18:18 13,4 C 12,8 C 8,9 C 94 % 1003,2 hPa 0,0 l/m 0 min 0 min 91 W/m 0,0 km/h (0 Bft) 100,00 %
22.09.2023 18:20 13,5 C 12,8 C 8,9 C 94 % 1003,0 hPa 0,0 l/m 2 min 0 min 91 W/m 3,2 km/h (1 Bft) 100,00 %
22.09.2023 18:22 13,5 C 12,8 C 9,4 C 95 % 1003,1 hPa 0,0 l/m 2 min 0 min 91 W/m 3,2 km/h (1 Bft) 100,00 %
22.09.2023 18:24 13,5 C 12,8 C 9,4 C 95 % 1003,1 hPa 0,0 l/m 2 min 0 min 90 W/m 0,0 km/h (0 Bft) 100,00 %
22.09.2023 18:26 13,5 C 12,8 C 9,4 C 95 % 1003,1 hPa 0,0 l/m 2 min 0 min 87 W/m 0,0 km/h (0 Bft) 100,00 %
22.09.2023 18:28 13,6 C 12,8 C 9,4 C 95 % 1003,1 hPa 0,0 l/m 2 min 0 min 83 W/m 3,2 km/h (1 Bft) 100,00 %
22.09.2023 18:30 13,6 C 13,3 C 9,4 C 95 % 1003,3 hPa 0,0 l/m 2 min 0 min 84 W/m 0,0 km/h (0 Bft) 100,00 %
22.09.2023 18:32 13,6 C 13,3 C 9,4 C 95 % 1003,4 hPa 0,0 l/m 2 min 0 min 89 W/m 0,0 km/h (0 Bft) 100,00 %
22.09.2023 18:34 13,7 C 13,3 C 9,4 C 95 % 1003,3 hPa 0,0 l/m 2 min 0 min 116 W/m 0,0 km/h (0 Bft) 100,00 %
22.09.2023 18:36 13,7 C 13,3 C 9,4 C 95 % 1003,4 hPa 0,0 l/m 2 min 0 min 127 W/m 0,0 km/h (0 Bft) 100,00 %
22.09.2023 18:38 13,8 C 13,3 C 9,4 C 95 % 1003,4 hPa 0,0 l/m 2 min 0 min 114 W/m 0,0 km/h (0 Bft) 100,00 %
22.09.2023 18:40 13,8 C 13,3 C 9,4 C 95 % 1003,3 hPa 0,0 l/m 2 min 0 min 103 W/m 0,0 km/h (0 Bft) 100,00 %
22.09.2023 18:42 13,8 C 13,3 C 9,4 C 95 % 1003,4 hPa 0,0 l/m 2 min 0 min 108 W/m 0,0 km/h (0 Bft) 100,00 %
22.09.2023 18:44 13,9 C 13,3 C 9,4 C 96 % 1003,4 hPa 0,0 l/m 2 min 0 min 108 W/m 3,2 km/h (1 Bft) 100,00 %
22.09.2023 18:46 13,9 C 13,3 C 9,4 C 96 % 1003,5 hPa 0,0 l/m 2 min 0 min 100 W/m 3,2 km/h (1 Bft) 97,87 %
22.09.2023 18:48 13,9 C 13,3 C 9,4 C 96 % 1003,5 hPa 0,0 l/m 2 min 0 min 89 W/m 3,2 km/h (1 Bft) 100,00 %
22.09.2023 18:50 13,9 C 12,8 C 9,4 C 95 % 1003,5 hPa 0,0 l/m 2 min 0 min 78 W/m 6,4 km/h (2 Bft) 100,00 %
22.09.2023 18:52 13,8 C 12,8 C 9,4 C 95 % 1003,5 hPa 0,0 l/m 2 min 0 min 70 W/m 3,2 km/h (1 Bft) 97,87 %
22.09.2023 18:54 13,8 C 12,8 C 9,4 C 95 % 1003,5 hPa 0,0 l/m 2 min 0 min 55 W/m 6,4 km/h (2 Bft) 100,00 %
22.09.2023 18:56 13,8 C 12,8 C 9,4 C 95 % 1003,6 hPa 0,0 l/m 2 min 0 min 44 W/m 3,2 km/h (1 Bft) 100,00 %
22.09.2023 18:58 13,8 C 12,8 C 9,4 C 95 % 1003,6 hPa 0,0 l/m 0 min 0 min 35 W/m 3,2 km/h (1 Bft) 95,74 %
22.09.2023 19:00 13,8 C 12,8 C 9,4 C 95 % 1003,6 hPa 0,0 l/m 0 min 0 min 31 W/m 3,2 km/h (1 Bft) 95,74 %
22.09.2023 19:02 13,8 C 12,8 C 8,9 C 95 % 1003,5 hPa 0,0 l/m 0 min 0 min 27 W/m 0,0 km/h (0 Bft) 97,87 %
22.09.2023 19:04 13,7 C 12,8 C 8,9 C 95 % 1003,4 hPa 0,0 l/m 0 min 0 min 24 W/m 3,2 km/h (1 Bft) 95,56 %
22.09.2023 19:10 13,7 C 12,2 C 8,9 C 95 % 1003,5 hPa 0,0 l/m 0 min 0 min 14 W/m 3,2 km/h (1 Bft) 97,10 %
22.09.2023 19:12 13,6 C 12,2 C 8,9 C 95 % 1003,5 hPa 0,0 l/m 0 min 0 min 11 W/m 3,2 km/h (1 Bft) 97,87 %
22.09.2023 19:14 13,6 C 12,2 C 8,9 C 95 % 1003,5 hPa 0,0 l/m 0 min 0 min 11 W/m 3,2 km/h (1 Bft) 95,65 %
22.09.2023 19:16 13,6 C 12,2 C 8,9 C 95 % 1003,5 hPa 0,0 l/m 0 min 0 min 11 W/m 3,2 km/h (1 Bft) 93,62 %
22.09.2023 19:18 13,6 C 12,8 C 8,9 C 95 % 1003,6 hPa 0,0 l/m 0 min 0 min 10 W/m 3,2 km/h (1 Bft) 95,74 %
22.09.2023 19:20 13,6 C 12,8 C 9,4 C 95 % 1003,5 hPa 0,0 l/m 0 min 0 min 8 W/m 3,2 km/h (1 Bft) 95,74 %
22.09.2023 19:22 13,6 C 12,8 C 9,4 C 96 % 1003,6 hPa 0,0 l/m 0 min 0 min 7 W/m 0,0 km/h (0 Bft) 93,62 %
22.09.2023 19:24 13,6 C 12,2 C 8,9 C 96 % 1003,7 hPa 0,0 l/m 0 min 0 min 7 W/m 6,4 km/h (2 Bft) 93,62 %
22.09.2023 19:26 13,6 C 12,2 C 8,9 C 96 % 1003,7 hPa 0,0 l/m 0 min 0 min 6 W/m 3,2 km/h (1 Bft) 95,74 %
22.09.2023 19:28 13,6 C 12,2 C 8,9 C 95 % 1003,7 hPa 0,0 l/m 0 min 0 min 5 W/m 3,2 km/h (1 Bft) 93,62 %
22.09.2023 19:30 13,6 C 12,2 C 8,9 C 95 % 1003,8 hPa 0,0 l/m 0 min 0 min 4 W/m 3,2 km/h (1 Bft) 91,49 %
22.09.2023 19:32 13,6 C 12,2 C 8,9 C 95 % 1003,7 hPa 0,0 l/m 0 min 0 min 0 W/m 3,2 km/h (1 Bft) 95,74 %
22.09.2023 19:34 13,5 C 12,2 C 8,9 C 95 % 1003,8 hPa 0,0 l/m 0 min 0 min 0 W/m 3,2 km/h (1 Bft) 95,74 %
22.09.2023 19:36 13,5 C 12,2 C 8,9 C 95 % 1003,8 hPa 0,0 l/m 0 min 0 min 0 W/m 0,0 km/h (0 Bft) 97,83 %
22.09.2023 19:38 13,5 C 12,2 C 8,9 C 95 % 1003,8 hPa 0,0 l/m 0 min 0 min 0 W/m 3,2 km/h (1 Bft) 97,87 %
22.09.2023 19:40 13,5 C 12,2 C 8,9 C 95 % 1003,9 hPa 0,0 l/m 0 min 0 min 0 W/m 0,0 km/h (0 Bft) 91,49 %
22.09.2023 19:42 13,5 C 12,2 C 8,9 C 95 % 1004,0 hPa 0,0 l/m 0 min 0 min 0 W/m 0,0 km/h (0 Bft) 95,74 %
22.09.2023 19:44 13,5 C 12,2 C 8,9 C 95 % 1004,0 hPa 0,0 l/m 0 min 0 min 0 W/m 3,2 km/h (1 Bft) 95,74 %
22.09.2023 19:46 13,5 C 12,2 C 8,9 C 95 % 1003,9 hPa 0,0 l/m 0 min 0 min 0 W/m 0,0 km/h (0 Bft) 95,74 %
22.09.2023 19:48 13,5 C 12,2 C 8,9 C 95 % 1003,9 hPa 0,0 l/m 0 min 0 min 0 W/m 0,0 km/h (0 Bft) 95,74 %
22.09.2023 19:50 13,5 C 12,8 C 9,4 C 96 % 1003,9 hPa 0,0 l/m 0 min 0 min 0 W/m 0,0 km/h (0 Bft) 95,74 %
22.09.2023 19:52 13,5 C 12,8 C 9,4 C 96 % 1004,0 hPa 0,0 l/m 0 min 0 min 0 W/m 3,2 km/h (1 Bft) 95,74 %
22.09.2023 19:54 13,5 C 12,8 C 9,4 C 96 % 1004,0 hPa 0,0 l/m 0 min 0 min 0 W/m 0,0 km/h (0 Bft) 93,75 %
22.09.2023 19:56 13,5 C 12,8 C 9,4 C 96 % 1004,0 hPa 0,0 l/m 0 min 0 min 0 W/m 3,2 km/h (1 Bft) 93,48 %
22.09.2023 19:58 13,6 C 12,8 C 9,4 C 96 % 1004,0 hPa 0,0 l/m 0 min 0 min 0 W/m 0,0 km/h (0 Bft) 97,92 %
22.09.2023 20:00 13,6 C 12,8 C 9,4 C 96 % 1004,0 hPa 0,0 l/m 0 min 0 min 0 W/m 0,0 km/h (0 Bft) 97,87 %
22.09.2023 20:02 13,6 C 12,8 C 9,4 C 96 % 1004,0 hPa 0,0 l/m 0 min 0 min 0 W/m 3,2 km/h (1 Bft) 97,87 %
22.09.2023 20:04 13,6 C 12,8 C 9,4 C 96 % 1004,0 hPa 0,0 l/m 0 min 0 min 0 W/m 0,0 km/h (0 Bft) 97,73 %
22.09.2023 20:06 13,6 C 12,8 C 9,4 C 96 % 1004,0 hPa 0,0 l/m 0 min 0 min 0 W/m 0,0 km/h (0 Bft) 97,87 %
22.09.2023 20:08 13,6 C 12,8 C 9,4 C 96 % 1004,0 hPa 0,0 l/m 0 min 0 min 0 W/m 0,0 km/h (0 Bft) 97,87 %
22.09.2023 20:10 13,6 C 12,8 C 9,4 C 96 % 1004,0 hPa 0,0 l/m 0 min 0 min 0 W/m 0,0 km/h (0 Bft) 98,11 %
22.09.2023 20:12 13,6 C 12,8 C 9,4 C 96 % 1004,0 hPa 0,0 l/m 0 min 0 min 0 W/m 0,0 km/h (0 Bft) 93,62 %
22.09.2023 20:14 13,6 C 12,8 C 9,4 C 96 % 1004,0 hPa 0,0 l/m 0 min 0 min 0 W/m 3,2 km/h (1 Bft) 95,74 %
22.09.2023 20:16 13,6 C 12,8 C 9,4 C 96 % 1004,1 hPa 0,0 l/m 0 min 0 min 0 W/m 3,2 km/h (1 Bft) 97,83 %
22.09.2023 20:18 13,6 C 12,8 C 9,4 C 96 % 1004,1 hPa 0,0 l/m 0 min 0 min 0 W/m 0,0 km/h (0 Bft) 97,87 %
22.09.2023 20:20 13,6 C 12,8 C 8,9 C 96 % 1004,0 hPa 0,0 l/m 0 min 0 min 0 W/m 3,2 km/h (1 Bft) 93,62 %
22.09.2023 20:22 13,6 C 12,8 C 9,4 C 96 % 1004,1 hPa 0,0 l/m 0 min 0 min 0 W/m 0,0 km/h (0 Bft) 97,87 %
22.09.2023 20:24 13,6 C 12,8 C 9,4 C 96 % 1004,1 hPa 0,0 l/m 0 min 0 min 0 W/m 0,0 km/h (0 Bft) 95,74 %
22.09.2023 20:26 13,6 C 12,8 C 9,4 C 96 % 1004,0 hPa 0,0 l/m 0 min 0 min 0 W/m 0,0 km/h (0 Bft) 97,87 %
22.09.2023 20:28 13,6 C 12,8 C 9,4 C 96 % 1004,0 hPa 0,0 l/m 0 min 0 min 0 W/m 0,0 km/h (0 Bft) 95,74 %
22.09.2023 20:30 13,6 C 12,8 C 9,4 C 96 % 1004,1 hPa 0,0 l/m 0 min 0 min 0 W/m 0,0 km/h (0 Bft) 95,74 %
22.09.2023 20:32 13,6 C 12,8 C 9,4 C 96 % 1004,1 hPa 0,0 l/m 0 min 0 min 0 W/m 3,2 km/h (1 Bft) 95,74 %
22.09.2023 20:34 13,6 C 12,8 C 8,9 C 96 % 1004,1 hPa 0,0 l/m 0 min 0 min 0 W/m 0,0 km/h (0 Bft) 100,00 %
22.09.2023 20:36 13,6 C 12,8 C 9,4 C 96 % 1004,1 hPa 0,0 l/m 0 min 0 min 0 W/m 3,2 km/h (1 Bft) 97,83 %
22.09.2023 20:38 13,6 C 12,8 C 9,4 C 96 % 1004,2 hPa 0,0 l/m 0 min 0 min 0 W/m 3,2 km/h (1 Bft) 97,22 %
22.09.2023 20:40 13,6 C 12,8 C 9,4 C 96 % 1004,1 hPa 0,0 l/m 0 min 0 min 0 W/m 0,0 km/h (0 Bft) 100,00 %
22.09.2023 20:42 13,6 C 12,8 C 9,4 C 96 % 1004,1 hPa 0,0 l/m 0 min 0 min 0 W/m 0,0 km/h (0 Bft) 100,00 %
22.09.2023 20:44 13,5 C 12,2 C 9,4 C 96 % 1004,2 hPa 0,0 l/m 0 min 0 min 0 W/m 3,2 km/h (1 Bft) 93,62 %
22.09.2023 20:46 13,5 C 12,2 C 9,4 C 96 % 1004,2 hPa 0,0 l/m 0 min 0 min 0 W/m 0,0 km/h (0 Bft) 97,87 %
22.09.2023 20:48 13,5 C 12,2 C 8,9 C 96 % 1004,2 hPa 0,0 l/m 0 min 0 min 0 W/m 0,0 km/h (0 Bft) 100,00 %
22.09.2023 20:50 13,5 C 12,2 C 8,9 C 96 % 1004,2 hPa 0,0 l/m 0 min 0 min 0 W/m 0,0 km/h (0 Bft) 95,74 %
22.09.2023 20:52 13,5 C 12,2 C 8,9 C 96 % 1004,2 hPa 0,0 l/m 0 min 0 min 0 W/m 0,0 km/h (0 Bft) 97,87 %
22.09.2023 20:54 13,5 C 12,2 C 9,4 C 96 % 1004,3 hPa 0,0 l/m 0 min 0 min 0 W/m 0,0 km/h (0 Bft) 97,87 %
22.09.2023 20:56 13,5 C 12,2 C 8,9 C 96 % 1004,3 hPa 0,0 l/m 0 min 0 min 0 W/m 0,0 km/h (0 Bft) 95,74 %
22.09.2023 20:58 13,5 C 12,2 C 8,9 C 96 % 1004,3 hPa 0,0 l/m 0 min 0 min 0 W/m 0,0 km/h (0 Bft) 97,87 %
22.09.2023 21:00 13,4 C 12,2 C 8,9 C 97 % 1004,3 hPa 0,0 l/m 0 min 0 min 0 W/m 0,0 km/h (0 Bft) 97,87 %
22.09.2023 21:02 13,4 C 12,2 C 8,9 C 97 % 1004,3 hPa 0,0 l/m 0 min 0 min 0 W/m 0,0 km/h (0 Bft) 95,74 %
22.09.2023 21:04 13,4 C 12,2 C 8,9 C 97 % 1004,4 hPa 0,0 l/m 0 min 0 min 0 W/m 6,4 km/h (2 Bft) 97,78 %
22.09.2023 21:08 13,4 C 12,2 C 8,9 C 97 % 1004,5 hPa 0,0 l/m 0 min 0 min 0 W/m 3,2 km/h (1 Bft) 96,81 %
22.09.2023 21:09 13,3 C 12,2 C 8,9 C 97 % 1004,5 hPa 0,0 l/m 0 min 0 min 0 W/m 3,2 km/h (1 Bft) 95,83 %
22.09.2023 21:10 13,3 C 12,2 C 8,9 C 97 % 1004,5 hPa 0,0 l/m 0 min 0 min 0 W/m 6,4 km/h (2 Bft) 100,00 %
22.09.2023 21:14 13,3 C 12,2 C 8,9 C 97 % 1004,6 hPa 0,0 l/m 0 min 0 min 0 W/m 3,2 km/h (1 Bft) 95,74 %
22.09.2023 21:16 13,3 C 12,2 C 8,9 C 97 % 1004,5 hPa 0,0 l/m 0 min 0 min 0 W/m 3,2 km/h (1 Bft) 97,92 %
22.09.2023 21:18 13,3 C 12,2 C 8,9 C 97 % 1004,5 hPa 0,0 l/m 0 min 0 min 0 W/m 3,2 km/h (1 Bft) 97,87 %
22.09.2023 21:20 13,3 C 12,2 C 9,4 C 97 % 1004,6 hPa 0,0 l/m 0 min 0 min 0 W/m 3,2 km/h (1 Bft) 93,62 %
22.09.2023 21:22 13,3 C 12,2 C 8,9 C 97 % 1004,6 hPa 0,0 l/m 0 min 0 min 0 W/m 3,2 km/h (1 Bft) 100,00 %
22.09.2023 21:24 13,3 C 12,2 C 8,9 C 97 % 1004,6 hPa 0,0 l/m 0 min 0 min 0 W/m 3,2 km/h (1 Bft) 100,00 %
22.09.2023 21:26 13,3 C 12,2 C 9,4 C 97 % 1004,7 hPa 0,0 l/m 0 min 2 min 0 W/m 0,0 km/h (0 Bft) 93,62 %
22.09.2023 21:28 13,3 C 12,8 C 9,4 C 97 % 1004,7 hPa 0,0 l/m 0 min 2 min 0 W/m 0,0 km/h (0 Bft) 100,00 %
22.09.2023 21:30 13,3 C 12,8 C 9,4 C 97 % 1004,7 hPa 0,0 l/m 0 min 2 min 0 W/m 3,2 km/h (1 Bft) 100,00 %
22.09.2023 21:32 13,3 C 12,8 C 9,4 C 97 % 1004,7 hPa 0,0 l/m 0 min 2 min 0 W/m 3,2 km/h (1 Bft) 97,87 %
22.09.2023 21:34 13,3 C 12,8 C 9,4 C 97 % 1004,7 hPa 0,0 l/m 0 min 0 min 0 W/m 0,0 km/h (0 Bft) 97,87 %
22.09.2023 21:36 13,3 C 12,8 C 9,4 C 97 % 1004,8 hPa 0,0 l/m 0 min 0 min 0 W/m 9,7 km/h (2 Bft) 97,87 %
22.09.2023 21:38 13,3 C 12,8 C 8,9 C 97 % 1004,8 hPa 0,0 l/m 0 min 0 min 0 W/m 19,3 km/h (3 Bft) 97,87 %
22.09.2023 21:40 13,3 C 12,8 C 8,9 C 97 % 1004,9 hPa 0,0 l/m 0 min 2 min 0 W/m 12,9 km/h (3 Bft) 95,74 %
22.09.2023 21:42 13,2 C 12,8 C 8,9 C 97 % 1004,9 hPa 0,0 l/m 0 min 2 min 0 W/m 6,4 km/h (2 Bft) 100,00 %
22.09.2023 21:44 13,2 C 12,8 C 8,9 C 97 % 1004,9 hPa 0,0 l/m 0 min 2 min 0 W/m 12,9 km/h (3 Bft) 93,62 %
22.09.2023 21:46 13,2 C 12,8 C 8,9 C 97 % 1004,9 hPa 0,0 l/m 0 min 0 min 0 W/m 12,9 km/h (3 Bft) 95,74 %
22.09.2023 21:48 13,2 C 12,2 C 8,9 C 97 % 1004,9 hPa 0,0 l/m 0 min 0 min 0 W/m 6,4 km/h (2 Bft) 93,62 %
22.09.2023 21:50 13,1 C 12,2 C 8,9 C 97 % 1004,9 hPa 0,0 l/m 0 min 0 min 0 W/m 9,7 km/h (2 Bft) 95,74 %
22.09.2023 21:52 13,1 C 12,2 C 8,9 C 97 % 1005,0 hPa 0,0 l/m 0 min 0 min 0 W/m 12,9 km/h (3 Bft) 91,49 %
22.09.2023 21:54 13,1 C 12,8 C 8,9 C 97 % 1005,0 hPa 0,0 l/m 0 min 0 min 0 W/m 3,2 km/h (1 Bft) 97,87 %
22.09.2023 21:56 13,1 C 12,2 C 8,9 C 97 % 1005,1 hPa 0,0 l/m 0 min 0 min 0 W/m 6,4 km/h (2 Bft) 97,87 %
22.09.2023 21:58 13,1 C 12,2 C 8,9 C 97 % 1005,0 hPa 0,0 l/m 0 min 0 min 0 W/m 6,4 km/h (2 Bft) 97,87 %
22.09.2023 22:00 13,0 C 12,2 C 8,3 C 97 % 1005,1 hPa 0,0 l/m 0 min 0 min 0 W/m 16,1 km/h (3 Bft) 97,87 %
22.09.2023 22:02 12,9 C 12,2 C 8,3 C 96 % 1005,1 hPa 0,0 l/m 0 min 0 min 0 W/m 6,4 km/h (2 Bft) 95,65 %
22.09.2023 22:04 12,8 C 12,2 C 8,3 C 96 % 1005,2 hPa 0,0 l/m 0 min 0 min 0 W/m 12,9 km/h (3 Bft) 98,00 %
22.09.2023 22:10 12,7 C 12,2 C 8,3 C 96 % 1005,3 hPa 0,0 l/m 0 min 0 min 0 W/m 12,9 km/h (3 Bft) 97,76 %
22.09.2023 22:12 12,6 C 11,7 C 8,3 C 96 % 1005,2 hPa 0,0 l/m 0 min 0 min 0 W/m 12,9 km/h (3 Bft) 97,87 %
22.09.2023 22:14 12,5 C 11,7 C 8,3 C 96 % 1005,2 hPa 0,0 l/m 0 min 0 min 0 W/m 12,9 km/h (3 Bft) 97,87 %
22.09.2023 22:16 12,6 C 12,2 C 8,3 C 96 % 1005,3 hPa 0,0 l/m 0 min 0 min 0 W/m 12,9 km/h (3 Bft) 95,74 %
22.09.2023 22:18 12,5 C 12,2 C 8,3 C 96 % 1005,2 hPa 0,0 l/m 0 min 0 min 0 W/m 6,4 km/h (2 Bft) 97,87 %
22.09.2023 22:20 12,6 C 12,2 C 8,3 C 96 % 1005,4 hPa 0,0 l/m 0 min 0 min 0 W/m 6,4 km/h (2 Bft) 97,83 %
22.09.2023 22:22 12,6 C 12,2 C 8,3 C 96 % 1005,3 hPa 0,0 l/m 0 min 0 min 0 W/m 6,4 km/h (2 Bft) 97,87 %
22.09.2023 22:24 12,6 C 12,2 C 7,8 C 96 % 1005,4 hPa 0,0 l/m 0 min 0 min 0 W/m 12,9 km/h (3 Bft) 97,87 %
22.09.2023 22:26 12,6 C 12,2 C 8,3 C 96 % 1005,4 hPa 0,0 l/m 0 min 0 min 0 W/m 6,4 km/h (2 Bft) 100,00 %
22.09.2023 22:28 12,6 C 11,7 C 8,3 C 96 % 1005,5 hPa 0,0 l/m 0 min 0 min 0 W/m 6,4 km/h (2 Bft) 100,00 %
22.09.2023 22:30 12,6 C 12,2 C 7,8 C 96 % 1005,5 hPa 0,0 l/m 0 min 0 min 0 W/m 6,4 km/h (2 Bft) 97,87 %
22.09.2023 22:32 12,6 C 11,7 C 7,8 C 96 % 1005,5 hPa 0,0 l/m 0 min 0 min 0 W/m 3,2 km/h (1 Bft) 100,00 %
22.09.2023 22:34 12,5 C 11,7 C 7,8 C 96 % 1005,6 hPa 0,0 l/m 0 min 0 min 0 W/m 6,4 km/h (2 Bft) 97,87 %
22.09.2023 22:36 12,5 C 11,7 C 7,8 C 96 % 1005,6 hPa 0,0 l/m 0 min 0 min 0 W/m 3,2 km/h (1 Bft) 95,74 %
22.09.2023 22:38 12,5 C 11,7 C 7,8 C 96 % 1005,6 hPa 0,0 l/m 0 min 0 min 0 W/m 6,4 km/h (2 Bft) 97,83 %
22.09.2023 22:40 12,5 C 12,2 C 7,8 C 96 % 1005,6 hPa 0,0 l/m 0 min 0 min 0 W/m 6,4 km/h (2 Bft) 97,87 %
22.09.2023 22:42 12,6 C 12,2 C 8,3 C 96 % 1005,7 hPa 0,0 l/m 0 min 0 min 0 W/m 6,4 km/h (2 Bft) 97,87 %
22.09.2023 22:44 12,6 C 12,2 C 8,3 C 96 % 1005,7 hPa 0,0 l/m 0 min 0 min 0 W/m 6,4 km/h (2 Bft) 95,74 %
22.09.2023 22:46 12,6 C 12,2 C 8,3 C 96 % 1005,8 hPa 0,0 l/m 0 min 0 min 0 W/m 12,9 km/h (3 Bft) 95,74 %
22.09.2023 22:48 12,5 C 12,2 C 8,3 C 96 % 1005,8 hPa 0,0 l/m 0 min 0 min 0 W/m 12,9 km/h (3 Bft) 93,62 %
22.09.2023 22:50 12,5 C 11,7 C 8,3 C 96 % 1005,8 hPa 0,0 l/m 0 min 2 min 0 W/m 16,1 km/h (3 Bft) 93,62 %
22.09.2023 22:52 12,5 C 11,7 C 8,3 C 96 % 1005,9 hPa 0,0 l/m 0 min 0 min 0 W/m 6,4 km/h (2 Bft) 91,49 %
22.09.2023 22:54 12,4 C 11,7 C 8,3 C 96 % 1005,9 hPa 0,0 l/m 0 min 0 min 0 W/m 6,4 km/h (2 Bft) 95,83 %
22.09.2023 22:56 12,4 C 11,7 C 8,3 C 96 % 1005,9 hPa 0,0 l/m 0 min 0 min 0 W/m 12,9 km/h (3 Bft) 95,74 %
22.09.2023 22:58 12,5 C 11,7 C 8,3 C 96 % 1005,9 hPa 0,0 l/m 0 min 0 min 0 W/m 6,4 km/h (2 Bft) 95,74 %
22.09.2023 23:00 12,4 C 11,7 C 7,8 C 96 % 1005,9 hPa 0,0 l/m 0 min 0 min 0 W/m 12,9 km/h (3 Bft) 95,65 %
22.09.2023 23:02 12,4 C 11,7 C 7,8 C 96 % 1006,0 hPa 0,0 l/m 0 min 0 min 0 W/m 12,9 km/h (3 Bft) 95,74 %
22.09.2023 23:04 12,4 C 11,7 C 8,3 C 96 % 1006,0 hPa 0,0 l/m 0 min 0 min 0 W/m 9,7 km/h (2 Bft) 94,12 %
22.09.2023 23:10 12,4 C 11,7 C 7,8 C 96 % 1006,1 hPa 0,0 l/m 0 min 0 min 0 W/m 12,9 km/h (3 Bft) 96,18 %
22.09.2023 23:12 12,4 C 11,7 C 7,8 C 96 % 1006,1 hPa 0,0 l/m 0 min 0 min 0 W/m 6,4 km/h (2 Bft) 95,74 %
22.09.2023 23:14 12,4 C 11,7 C 7,8 C 96 % 1006,2 hPa 0,0 l/m 0 min 0 min 0 W/m 6,4 km/h (2 Bft) 97,87 %
22.09.2023 23:16 12,4 C 11,7 C 7,8 C 96 % 1006,2 hPa 0,0 l/m 0 min 0 min 0 W/m 6,4 km/h (2 Bft) 98,11 %
22.09.2023 23:18 12,4 C 11,7 C 8,3 C 96 % 1006,3 hPa 0,0 l/m 0 min 0 min 0 W/m 6,4 km/h (2 Bft) 97,83 %
22.09.2023 23:20 12,4 C 11,7 C 8,3 C 96 % 1006,3 hPa 0,0 l/m 0 min 0 min 0 W/m 6,4 km/h (2 Bft) 95,12 %
22.09.2023 23:22 12,4 C 11,7 C 8,3 C 96 % 1006,3 hPa 0,0 l/m 0 min 0 min 0 W/m 3,2 km/h (1 Bft) 97,87 %
22.09.2023 23:24 12,4 C 11,7 C 8,3 C 96 % 1006,4 hPa 0,0 l/m 0 min 0 min 0 W/m 6,4 km/h (2 Bft) 96,23 %
22.09.2023 23:26 12,4 C 11,7 C 8,3 C 96 % 1006,4 hPa 0,0 l/m 0 min 0 min 0 W/m 9,7 km/h (2 Bft) 97,87 %
22.09.2023 23:28 12,4 C 11,7 C 8,3 C 96 % 1006,4 hPa 0,0 l/m 0 min 0 min 0 W/m 6,4 km/h (2 Bft) 97,87 %
22.09.2023 23:30 12,4 C 11,7 C 8,3 C 96 % 1006,5 hPa 0,0 l/m 0 min 0 min 0 W/m 6,4 km/h (2 Bft) 97,87 %
22.09.2023 23:32 12,4 C 11,7 C 8,3 C 96 % 1006,5 hPa 0,0 l/m 0 min 0 min 0 W/m 3,2 km/h (1 Bft) 97,87 %
22.09.2023 23:34 12,4 C 11,7 C 8,3 C 96 % 1006,5 hPa 0,0 l/m 0 min 0 min 0 W/m 6,4 km/h (2 Bft) 97,87 %
22.09.2023 23:36 12,5 C 11,7 C 8,3 C 96 % 1006,6 hPa 0,0 l/m 0 min 0 min 0 W/m 6,4 km/h (2 Bft) 97,87 %
22.09.2023 23:38 12,4 C 11,7 C 8,3 C 96 % 1006,6 hPa 0,0 l/m 0 min 0 min 0 W/m 12,9 km/h (3 Bft) 97,83 %
22.09.2023 23:40 12,4 C 11,7 C 8,3 C 96 % 1006,6 hPa 0,0 l/m 0 min 0 min 0 W/m 6,4 km/h (2 Bft) 97,87 %
22.09.2023 23:42 12,4 C 11,7 C 8,3 C 96 % 1006,7 hPa 0,0 l/m 0 min 0 min 0 W/m 12,9 km/h (3 Bft) 95,74 %
22.09.2023 23:44 12,4 C 11,7 C 8,3 C 96 % 1006,8 hPa 0,0 l/m 0 min 0 min 0 W/m 9,7 km/h (2 Bft) 95,74 %
22.09.2023 23:46 12,4 C 11,7 C 8,3 C 96 % 1006,8 hPa 0,0 l/m 0 min 0 min 0 W/m 9,7 km/h (2 Bft) 100,00 %
22.09.2023 23:48 12,4 C 11,7 C 7,8 C 96 % 1006,8 hPa 0,0 l/m 0 min 0 min 0 W/m 16,1 km/h (3 Bft) 100,00 %
22.09.2023 23:50 12,3 C 11,7 C 7,8 C 96 % 1006,8 hPa 0,0 l/m 0 min 0 min 0 W/m 6,4 km/h (2 Bft) 97,87 %
22.09.2023 23:52 12,3 C 11,7 C 7,8 C 96 % 1006,8 hPa 0,0 l/m 0 min 0 min 0 W/m 6,4 km/h (2 Bft) 100,00 %
22.09.2023 23:54 12,3 C 11,7 C 7,8 C 96 % 1006,9 hPa 0,0 l/m 0 min 0 min 0 W/m 6,4 km/h (2 Bft) 95,92 %
22.09.2023 23:56 12,3 C 11,7 C 7,8 C 96 % 1006,9 hPa 0,0 l/m 0 min 0 min 0 W/m 3,2 km/h (1 Bft) 97,87 %
22.09.2023 23:58 12,3 C 11,7 C 7,8 C 96 % 1007,0 hPa 0,0 l/m 0 min 0 min 0 W/m 0,0 km/h (0 Bft) 100,00 %
_ Min-Zeit 23:50 04:44 22:24 15:48 00:02 - - - - 03:02 16:50
Minimum _ 12,3 C 11,7 C 7,8 C 62 % 998,9 hPa - - - - 0,0 km/h (0 Bft) 63,83 %
_ Max-Zeit 14:20 14:20 14:18 00:00 23:58 17:26 10:02 18:08 14:08 10:46 00:40
Maximum _ 19,3 C 22,2 C 15,0 C 97 % 1007,0 hPa 2,0 l/m 2 min 4 min 835 W/m 41,8 km/h
S-SW (6 Bft)
100,00 %
Durchschnitt _ 14,7 C 14,2 C 10,6 C 88 % 1002,1 hPa #8,4 l/m #2:20 h #1:16 h 179 W/m 10,3 km/h (2 Bft) 97,23 %
© 2023 W. Hausmann